GFSSGP_500_temp_000.txt.gz
Temp
-7 -7 -7 -6 -7 -6 -6 -6 -7 -7 -7 -7 -7 -7 -7 -7 -8 -8 -8 -9 -9 -10 -10 -10 -10 -10 -10 -11 -11 -11 -11 -11 -11 -11 -11 -11 -10 -10 -10 -10 -10 -10 -10 -10 -10 -9 -9 -9 -8
-7 -7 -7 -7 -7 -7 -7 -7 -7 -7 -7 -7 -7 -7 -8 -8 -8 -9 -9 -9 -9 -10 -10 -10 -10 -11 -11 -11 -11 -11 -11 -11 -11 -11 -11 -11 -11 -11 -11 -11 -10 -10 -10 -10 -10 -10 -10 -9 -9
-8 -8 -7 -7 -7 -7 -7 -7 -7 -7 -6 -6 -7 -8 -8 -8 -9 -9 -9 -9 -9 -10 -10 -10 -11 -11 -11 -12 -12 -12 -12 -12 -12 -11 -11 -11 -11 -11 -11 -11 -11 -10 -11 -10 -10 -10 -10 -10 -10
-8 -8 -7 -7 -7 -7 -7 -8 -7 -7 -7 -7 -7 -8 -8 -8 -8 -9 -9 -9 -9 -10 -11 -11 -11 -11 -12 -12 -12 -12 -12 -12 -12 -11 -11 -11 -11 -11 -11 -11 -11 -10 -11 -11 -10 -10 -10 -10 -10
-8 -8 -8 -7 -7 -7 -8 -8 -7 -7 -7 -8 -8 -8 -8 -8 -9 -9 -9 -9 -10 -10 -11 -11 -11 -12 -12 -12 -12 -12 -12 -12 -11 -11 -12 -12 -11 -11 -11 -11 -11 -11 -11 -11 -11 -11 -11 -10 -10
-9 -8 -8 -8 -7 -8 -8 -8 -7 -7 -8 -8 -8 -8 -8 -9 -9 -9 -9 -10 -10 -11 -11 -12 -12 -12 -12 -12 -12 -12 -12 -12 -12 -12 -12 -12 -12 -11 -11 -11 -11 -11 -11 -11 -11 -11 -11 -11 -10
-9 -9 -8 -8 -8 -8 -8 -8 -7 -8 -8 -8 -8 -8 -9 -9 -9 -9 -10 -10 -11 -11 -12 -12 -12 -12 -12 -12 -12 -12 -12 -12 -12 -12 -12 -12 -12 -12 -12 -12 -11 -11 -11 -11 -11 -12 -11 -11 -11
-9 -9 -9 -8 -8 -9 -8 -8 -8 -8 -8 -9 -8 -9 -9 -9 -9 -10 -10 -11 -11 -11 -11 -12 -12 -12 -12 -13 -13 -13 -13 -13 -13 -13 -13 -13 -13 -12 -12 -12 -12 -11 -11 -12 -12 -12 -12 -12 -11
-10 -9 -9 -8 -9 -9 -9 -8 -8 -9 -9 -9 -9 -9 -10 -10 -10 -10 -11 -11 -11 -11 -12 -12 -12 -13 -13 -13 -13 -13 -13 -13 -13 -13 -13 -13 -13 -13 -13 -13 -13 -12 -12 -12 -12 -12 -12 -12 -11
-10 -9 -9 -9 -9 -9 -10 -9 -9 -10 -10 -10 -9 -10 -10 -10 -10 -10 -11 -11 -11 -12 -12 -12 -13 -13 -13 -13 -13 -13 -13 -14 -14 -14 -14 -14 -14 -14 -14 -14 -14 -14 -13 -13 -13 -12 -12 -12 -11
-10 -10 -9 -9 -10 -10 -10 -9 -9 -10 -10 -10 -10 -10 -10 -10 -11 -11 -11 -11 -12 -12 -12 -12 -13 -13 -13 -13 -13 -13 -14 -14 -15 -14 -14 -14 -15 -15 -15 -15 -15 -15 -14 -13 -13 -13 -12 -12 -12
-11 -10 -10 -10 -10 -10 -10 -9 -10 -10 -10 -10 -11 -11 -10 -11 -11 -11 -11 -12 -12 -12 -12 -13 -13 -13 -13 -13 -14 -14 -14 -15 -15 -15 -15 -15 -14 -15 -15 -15 -15 -15 -14 -13 -13 -13 -13 -13 -12
-11 -11 -11 -11 -10 -10 -10 -10 -10 -11 -12 -11 -11 -11 -10 -11 -11 -11 -11 -12 -12 -12 -13 -13 -13 -13 -14 -14 -14 -14 -14 -16 -16 -16 -15 -15 -15 -15 -15 -15 -15 -15 -14 -14 -14 -14 -14 -13 -13
-11 -11 -11 -11 -11 -10 -10 -10 -12 -12 -12 -12 -11 -11 -11 -11 -11 -11 -12 -12 -12 -12 -13 -13 -13 -13 -13 -13 -13 -14 -15 -16 -16 -16 -16 -16 -16 -16 -15 -15 -15 -14 -14 -14 -14 -14 -14 -14 -13
-11 -11 -12 -12 -11 -11 -10 -11 -12 -12 -13 -12 -11 -11 -11 -11 -11 -12 -12 -12 -12 -13 -13 -13 -13 -13 -13 -13 -13 -14 -14 -15 -16 -16 -16 -16 -16 -16 -16 -15 -15 -15 -15 -14 -14 -14 -14 -14 -13
-12 -12 -11 -11 -11 -11 -10 -12 -12 -12 -13 -11 -12 -12 -12 -11 -11 -12 -12 -12 -12 -13 -13 -13 -13 -13 -13 -13 -14 -15 -15 -15 -16 -16 -16 -16 -16 -16 -16 -15 -15 -15 -15 -15 -14 -14 -14 -14 -14
-11 -12 -12 -12 -12 -11 -11 -11 -13 -13 -12 -12 -12 -12 -12 -11 -11 -12 -12 -12 -12 -13 -13 -13 -13 -13 -12 -13 -14 -14 -15 -15 -15 -15 -15 -15 -15 -15 -15 -15 -15 -15 -15 -14 -14 -15 -15 -15 -15
-12 -11 -11 -11 -12 -11 -11 -12 -13 -12 -12 -13 -13 -13 -12 -12 -12 -12 -12 -12 -12 -13 -13 -13 -13 -13 -12 -13 -13 -14 -14 -14 -14 -15 -15 -15 -15 -15 -15 -15 -15 -15 -14 -15 -15 -15 -15 -15 -14
-12 -11 -11 -11 -13 -12 -12 -12 -12 -12 -12 -13 -13 -13 -13 -12 -12 -12 -12 -12 -12 -13 -13 -13 -13 -13 -12 -12 -13 -13 -14 -14 -14 -15 -14 -15 -15 -14 -14 -15 -14 -15 -15 -15 -15 -15 -15 -14 -14
-12 -11 -11 -11 -12 -12 -12 -12 -12 -13 -13 -13 -14 -14 -13 -12 -12 -12 -13 -13 -13 -13 -13 -12 -13 -13 -13 -12 -13 -13 -13 -14 -14 -14 -14 -14 -14 -14 -14 -14 -14 -15 -15 -15 -15 -14 -14 -14 -13
-11 -11 -11 -11 -12 -12 -12 -11 -12 -13 -13 -12 -13 -13 -13 -13 -12 -12 -13 -13 -13 -13 -13 -13 -12 -12 -12 -12 -13 -14 -14 -13 -14 -14 -13 -14 -13 -14 -14 -14 -14 -14 -14 -15 -14 -14 -13 -13 -13
-11 -12 -12 -12 -12 -12 -12 -11 -12 -12 -13 -13 -12 -13 -13 -13 -12 -12 -13 -13 -13 -13 -13 -13 -12 -12 -12 -12 -13 -13 -13 -13 -13 -14 -13 -13 -14 -14 -14 -14 -14 -14 -14 -15 -14 -13 -13 -13 -13
-12 -13 -13 -12 -12 -11 -11 -11 -11 -12 -13 -12 -12 -13 -13 -13 -13 -12 -13 -13 -13 -13 -13 -13 -12 -12 -12 -12 -13 -13 -13 -13 -13 -13 -13 -13 -13 -14 -13 -14 -14 -14 -14 -13 -14 -12 -13 -12 -13
-12 -12 -12 -12 -12 -11 -12 -12 -11 -13 -12 -12 -13 -13 -13 -13 -12 -12 -13 -13 -13 -13 -13 -13 -12 -12 -12 -13 -13 -13 -13 -13 -13 -13 -13 -13 -13 -13 -13 -13 -14 -14 -14 -14 -13 -13 -13 -14 -13
-12 -12 -12 -12 -12 -11 -13 -12 -12 -12 -11 -12 -13 -13 -13 -12 -12 -12 -13 -13 -13 -13 -13 -13 -13 -12 -12 -13 -13 -13 -13 -13 -13 -13 -13 -13 -13 -13 -13 -13 -13 -13 -13 -13 -13 -13 -12 -13 -13
-12 -13 -13 -12 -13 -12 -13 -12 -12 -12 -12 -12 -13 -12 -13 -12 -12 -12 -13 -13 -13 -13 -13 -13 -13 -12 -12 -13 -13 -12 -13 -13 -13 -13 -13 -12 -13 -13 -13 -13 -13 -13 -12 -12 -12 -13 -12 -12 -12
-13 -13 -13 -13 -14 -12 -12 -12 -13 -13 -13 -12 -13 -13 -12 -12 -12 -12 -13 -13 -13 -13 -13 -13 -13 -13 -12 -13 -13 -13 -13 -13 -13 -13 -13 -13 -13 -13 -13 -13 -13 -13 -13 -13 -13 -13 -13 -13 -12
-13 -14 -14 -14 -14 -13 -12 -12 -13 -13 -13 -13 -13 -12 -12 -12 -12 -12 -13 -13 -13 -13 -13 -13 -13 -13 -13 -12 -12 -12 -13 -13 -13 -13 -13 -13 -13 -13 -13 -13 -14 -14 -13 -13 -13 -13 -13 -12 -12
-12 -13 -14 -13 -14 -13 -12 -12 -14 -14 -13 -13 -13 -12 -12 -12 -12 -12 -13 -13 -13 -13 -13 -13 -13 -13 -13 -12 -12 -12 -12 -13 -13 -13 -13 -13 -13 -13 -12 -13 -13 -13 -13 -13 -13 -13 -13 -13 -13
-12 -13 -14 -14 -14 -14 -13 -12 -14 -14 -14 -14 -13 -13 -12 -12 -12 -12 -13 -13 -13 -13 -13 -13 -13 -13 -13 -12 -12 -13 -13 -13 -13 -13 -13 -13 -13 -13 -12 -12 -13 -13 -13 -14 -13 -13 -13 -14 -13

GFSSGP_500_temp_003.txt.gz
Temp
-7 -7 -7 -7 -7 -7 -7 -7 -8 -8 -8 -8 -8 -7 -7 -6 -6 -7 -7 -7 -8 -8 -9 -9 -10 -10 -10 -10 -10 -10 -11 -11 -11 -11 -11 -11 -10 -11 -11 -11 -10 -10 -11 -10 -10 -10 -10 -9 -9
-7 -7 -7 -7 -7 -7 -7 -8 -8 -8 -8 -8 -8 -8 -8 -7 -7 -7 -8 -8 -9 -9 -9 -9 -10 -10 -10 -10 -10 -11 -11 -11 -11 -11 -11 -10 -11 -11 -11 -11 -11 -11 -10 -10 -10 -10 -10 -10 -9
-7 -7 -7 -8 -8 -7 -8 -8 -9 -9 -9 -8 -8 -9 -9 -8 -8 -8 -8 -9 -9 -9 -10 -10 -10 -10 -11 -11 -11 -11 -11 -11 -11 -11 -11 -11 -10 -10 -11 -11 -11 -11 -11 -10 -10 -10 -10 -10 -10
-8 -8 -8 -8 -8 -7 -8 -9 -9 -10 -9 -9 -9 -9 -9 -9 -9 -9 -9 -9 -9 -10 -10 -10 -10 -11 -11 -11 -12 -12 -12 -11 -11 -11 -11 -11 -11 -11 -11 -11 -11 -11 -11 -11 -10 -10 -10 -10 -10
-9 -9 -9 -9 -8 -8 -8 -9 -9 -9 -9 -9 -9 -9 -9 -9 -9 -9 -9 -9 -10 -10 -10 -10 -11 -11 -12 -11 -11 -11 -12 -11 -11 -11 -12 -12 -12 -11 -11 -11 -11 -11 -11 -11 -11 -10 -10 -10 -10
-10 -9 -9 -9 -9 -8 -9 -9 -8 -9 -9 -9 -9 -9 -9 -9 -9 -9 -9 -10 -10 -10 -11 -11 -11 -11 -11 -11 -12 -12 -12 -12 -12 -12 -12 -12 -12 -11 -11 -11 -11 -11 -11 -11 -11 -11 -11 -10 -10
-10 -9 -9 -9 -9 -8 -9 -9 -9 -9 -9 -9 -8 -9 -9 -9 -9 -10 -10 -10 -10 -11 -11 -11 -11 -11 -11 -12 -12 -12 -12 -12 -12 -12 -12 -12 -12 -12 -12 -11 -11 -12 -11 -11 -11 -11 -11 -11 -10
-10 -10 -9 -10 -9 -8 -9 -9 -9 -9 -9 -9 -9 -9 -10 -9 -10 -11 -10 -11 -11 -11 -11 -11 -11 -12 -11 -12 -12 -12 -12 -12 -13 -13 -13 -13 -13 -13 -13 -12 -12 -12 -12 -11 -11 -12 -11 -11 -11
-10 -10 -10 -10 -9 -9 -9 -10 -10 -9 -9 -9 -9 -9 -10 -10 -11 -11 -11 -11 -11 -10 -11 -11 -12 -12 -12 -12 -12 -13 -13 -13 -13 -13 -13 -13 -13 -13 -13 -13 -12 -12 -12 -12 -12 -12 -12 -11 -11
-10 -10 -11 -10 -10 -10 -11 -11 -10 -10 -9 -9 -10 -10 -10 -11 -11 -11 -11 -11 -11 -10 -11 -12 -12 -12 -13 -13 -13 -13 -13 -14 -14 -14 -15 -14 -14 -14 -13 -14 -13 -13 -12 -12 -12 -12 -12 -11 -11
-11 -10 -11 -10 -11 -10 -11 -11 -11 -10 -10 -10 -10 -11 -11 -11 -11 -11 -11 -11 -11 -11 -12 -12 -12 -13 -13 -13 -13 -14 -14 -14 -15 -16 -15 -15 -15 -15 -15 -15 -15 -14 -14 -13 -12 -12 -12 -11 -12
-11 -11 -11 -11 -11 -11 -11 -11 -11 -11 -11 -11 -11 -11 -11 -11 -11 -11 -11 -11 -11 -11 -12 -12 -12 -13 -13 -13 -14 -14 -14 -14 -15 -16 -16 -15 -15 -14 -15 -15 -15 -15 -14 -14 -13 -13 -12 -12 -12
-11 -12 -11 -12 -12 -13 -12 -11 -11 -11 -11 -11 -11 -11 -11 -11 -11 -11 -11 -11 -11 -11 -11 -12 -13 -13 -13 -13 -14 -14 -14 -15 -15 -16 -16 -16 -15 -15 -15 -15 -15 -15 -15 -15 -14 -13 -13 -12 -12
-11 -12 -12 -12 -12 -13 -12 -11 -11 -11 -11 -12 -12 -12 -12 -12 -12 -12 -11 -11 -11 -11 -12 -12 -13 -13 -13 -13 -13 -14 -14 -14 -15 -16 -16 -16 -16 -15 -15 -15 -15 -16 -15 -15 -14 -13 -13 -13 -13
-11 -11 -13 -12 -13 -12 -12 -12 -11 -11 -12 -12 -12 -12 -13 -13 -12 -12 -11 -11 -11 -11 -12 -12 -13 -12 -12 -13 -13 -14 -14 -15 -16 -16 -15 -16 -16 -16 -16 -15 -15 -15 -15 -15 -14 -14 -13 -13 -13
-11 -12 -13 -13 -13 -12 -12 -12 -12 -12 -12 -12 -12 -12 -13 -13 -12 -12 -11 -11 -12 -11 -12 -12 -13 -12 -12 -12 -13 -13 -13 -14 -15 -15 -16 -16 -16 -16 -16 -15 -15 -15 -15 -15 -15 -14 -14 -14 -14
-11 -12 -13 -13 -13 -13 -12 -11 -12 -12 -12 -12 -12 -12 -13 -13 -13 -12 -12 -12 -12 -12 -12 -13 -13 -12 -12 -13 -13 -13 -13 -13 -14 -15 -15 -15 -15 -15 -15 -15 -15 -15 -15 -15 -15 -15 -15 -14 -14
-12 -12 -12 -12 -13 -12 -12 -11 -12 -13 -12 -13 -12 -12 -13 -14 -13 -12 -12 -12 -12 -12 -12 -13 -13 -12 -12 -13 -13 -13 -13 -14 -14 -14 -14 -14 -15 -15 -15 -15 -15 -15 -15 -15 -15 -14 -14 -14 -14
-12 -12 -12 -12 -12 -12 -12 -11 -11 -12 -12 -13 -12 -13 -13 -14 -13 -13 -12 -12 -12 -12 -13 -13 -12 -12 -12 -13 -13 -13 -13 -13 -14 -13 -14 -14 -14 -14 -15 -15 -15 -15 -15 -15 -14 -14 -14 -14 -13
-12 -12 -12 -11 -12 -11 -11 -11 -11 -12 -12 -13 -13 -13 -13 -13 -13 -13 -12 -12 -12 -12 -13 -13 -12 -12 -12 -13 -13 -13 -12 -13 -14 -13 -13 -14 -13 -13 -14 -14 -14 -14 -14 -14 -14 -14 -14 -13 -13
-11 -11 -11 -11 -12 -11 -11 -11 -11 -11 -12 -13 -12 -12 -13 -13 -13 -13 -12 -12 -12 -13 -13 -13 -12 -12 -12 -13 -12 -12 -12 -13 -13 -13 -13 -13 -13 -13 -14 -14 -14 -14 -14 -14 -14 -15 -15 -15 -14
-11 -11 -11 -11 -11 -11 -12 -11 -11 -12 -12 -13 -12 -12 -12 -13 -13 -13 -12 -12 -12 -13 -13 -13 -12 -13 -13 -13 -12 -12 -12 -12 -13 -13 -13 -13 -13 -14 -14 -14 -14 -14 -13 -14 -15 -15 -14 -14 -14
-11 -11 -11 -12 -11 -11 -12 -11 -11 -12 -12 -12 -12 -12 -12 -13 -13 -13 -12 -12 -12 -13 -13 -13 -12 -13 -13 -12 -13 -12 -12 -12 -13 -13 -13 -13 -13 -13 -14 -13 -13 -13 -13 -14 -14 -14 -14 -14 -14
-11 -11 -11 -12 -12 -11 -12 -13 -12 -12 -12 -12 -12 -12 -13 -13 -13 -13 -12 -12 -12 -13 -13 -13 -12 -12 -13 -12 -12 -13 -12 -12 -13 -13 -13 -13 -13 -13 -13 -13 -13 -14 -13 -13 -14 -14 -14 -14 -14
-11 -12 -12 -12 -12 -12 -12 -12 -12 -12 -12 -12 -12 -12 -13 -13 -12 -13 -12 -12 -12 -13 -13 -13 -12 -13 -13 -13 -12 -12 -13 -12 -13 -13 -13 -13 -13 -13 -13 -13 -13 -13 -14 -14 -14 -14 -14 -13 -13
-12 -12 -12 -12 -12 -12 -12 -12 -12 -13 -12 -12 -12 -12 -12 -12 -12 -12 -12 -12 -12 -13 -13 -13 -13 -13 -13 -13 -13 -12 -12 -13 -13 -13 -13 -13 -13 -13 -14 -13 -13 -13 -14 -14 -14 -14 -13 -12 -12
-11 -11 -12 -12 -12 -12 -12 -12 -13 -13 -13 -13 -13 -13 -13 -12 -12 -12 -12 -12 -12 -13 -13 -13 -13 -13 -13 -13 -13 -12 -13 -13 -13 -13 -13 -13 -13 -13 -13 -13 -13 -13 -13 -13 -13 -13 -13 -14 -13
-10 -12 -12 -12 -12 -12 -12 -12 -14 -13 -14 -13 -14 -13 -13 -12 -12 -12 -12 -12 -12 -13 -13 -13 -12 -13 -13 -13 -12 -12 -12 -13 -13 -13 -13 -13 -13 -13 -13 -13 -13 -12 -13 -13 -12 -13 -13 -13 -13
-11 -10 -11 -12 -12 -12 -12 -13 -14 -14 -14 -14 -14 -13 -13 -12 -12 -12 -12 -12 -13 -13 -13 -13 -13 -13 -13 -13 -12 -12 -12 -13 -13 -13 -12 -13 -13 -14 -13 -13 -13 -13 -13 -13 -13 -13 -13 -13 -13
-11 -11 -12 -11 -12 -12 -13 -12 -14 -14 -14 -14 -14 -13 -13 -12 -12 -12 -12 -12 -13 -13 -13 -13 -13 -13 -13 -13 -13 -12 -12 -12 -13 -13 -12 -12 -13 -13 -13 -13 -14 -13 -13 -13 -13 -13 -13 -13 -13

GFSSGP_500_temp_006.txt.gz
Temp
-7 -7 -7 -7 -7 -7 -7 -7 -7 -8 -7 -8 -7 -7 -7 -7 -7 -7 -7 -7 -8 -8 -9 -9 -9 -9 -9 -10 -10 -10 -10 -11 -11 -11 -10 -10 -10 -11 -10 -11 -11 -11 -11 -10 -10 -10 -10 -10 -10
-8 -8 -8 -7 -8 -8 -10 -8 -8 -8 -8 -8 -8 -8 -8 -7 -7 -8 -7 -8 -8 -8 -9 -9 -9 -9 -10 -10 -10 -10 -10 -10 -11 -11 -11 -10 -10 -10 -11 -10 -10 -11 -11 -11 -10 -10 -10 -10 -10
-8 -8 -8 -8 -8 -8 -8 -8 -8 -8 -8 -8 -8 -8 -8 -8 -8 -8 -8 -8 -8 -9 -9 -9 -9 -10 -10 -10 -10 -10 -11 -11 -11 -11 -11 -11 -10 -10 -10 -10 -11 -11 -11 -11 -11 -10 -10 -10 -10
-8 -8 -8 -9 -9 -8 -9 -9 -9 -9 -9 -9 -9 -9 -8 -8 -9 -8 -9 -9 -9 -9 -9 -9 -10 -10 -10 -11 -11 -11 -11 -11 -11 -11 -11 -11 -11 -11 -11 -10 -11 -11 -11 -11 -11 -11 -11 -11 -11
-9 -9 -9 -9 -9 -9 -9 -9 -9 -9 -9 -9 -10 -9 -9 -9 -9 -9 -9 -9 -9 -9 -9 -10 -10 -11 -11 -11 -11 -11 -11 -11 -11 -11 -11 -11 -11 -11 -11 -11 -11 -11 -11 -11 -11 -11 -11 -11 -11
-9 -9 -9 -10 -11 -9 -9 -9 -9 -10 -10 -10 -10 -9 -9 -9 -9 -9 -9 -9 -9 -9 -10 -10 -11 -11 -10 -11 -11 -11 -11 -12 -12 -12 -12 -12 -12 -11 -11 -12 -12 -11 -11 -11 -11 -11 -11 -11 -10
-10 -10 -10 -10 -10 -10 -9 -10 -10 -10 -10 -10 -10 -9 -9 -9 -9 -9 -9 -9 -10 -10 -10 -10 -11 -10 -10 -11 -11 -11 -12 -12 -12 -13 -13 -12 -12 -12 -12 -12 -12 -11 -11 -11 -11 -11 -11 -11 -11
-10 -10 -10 -10 -11 -11 -10 -10 -11 -11 -11 -10 -10 -9 -9 -9 -9 -9 -10 -10 -10 -11 -11 -10 -10 -10 -11 -11 -11 -12 -12 -12 -13 -13 -13 -13 -13 -13 -13 -13 -13 -12 -12 -12 -12 -11 -11 -11 -11
-10 -10 -10 -11 -11 -11 -11 -11 -11 -11 -10 -10 -10 -10 -9 -10 -10 -10 -10 -10 -11 -11 -10 -10 -10 -11 -11 -11 -12 -12 -12 -13 -13 -13 -13 -14 -14 -14 -13 -13 -13 -13 -12 -12 -12 -12 -11 -11 -11
-10 -11 -11 -11 -11 -11 -11 -11 -12 -11 -11 -10 -10 -10 -10 -10 -10 -10 -11 -11 -11 -10 -10 -10 -10 -11 -11 -11 -12 -12 -13 -13 -13 -13 -14 -15 -15 -15 -14 -14 -14 -14 -14 -13 -13 -12 -11 -11 -11
-10 -11 -11 -11 -11 -11 -11 -12 -12 -12 -11 -10 -10 -10 -10 -10 -10 -11 -11 -11 -11 -11 -10 -10 -11 -11 -11 -12 -12 -12 -13 -14 -14 -14 -15 -15 -16 -15 -15 -14 -14 -14 -14 -14 -13 -12 -12 -11 -11
-10 -11 -11 -11 -12 -12 -12 -12 -12 -12 -12 -11 -11 -10 -11 -11 -11 -11 -11 -11 -11 -11 -11 -11 -11 -11 -11 -12 -12 -12 -13 -14 -14 -15 -15 -16 -16 -15 -15 -15 -15 -14 -15 -14 -13 -13 -12 -12 -11
-9 -11 -11 -11 -12 -12 -12 -12 -13 -13 -12 -12 -11 -11 -11 -11 -11 -11 -11 -11 -11 -11 -11 -11 -11 -11 -12 -11 -12 -12 -13 -14 -14 -15 -15 -16 -16 -16 -14 -14 -15 -15 -15 -14 -14 -13 -12 -12 -12
-10 -10 -11 -11 -12 -12 -12 -12 -13 -13 -12 -12 -11 -11 -11 -12 -12 -12 -11 -11 -11 -11 -11 -11 -11 -11 -12 -11 -12 -13 -13 -14 -14 -15 -15 -15 -15 -15 -15 -15 -15 -15 -15 -15 -14 -14 -13 -12 -12
-10 -11 -11 -12 -12 -12 -12 -13 -13 -13 -12 -12 -12 -12 -12 -12 -12 -12 -11 -12 -11 -11 -11 -11 -11 -11 -12 -12 -12 -12 -13 -13 -14 -15 -15 -15 -15 -15 -15 -15 -15 -15 -15 -15 -14 -14 -13 -13 -12
-10 -10 -12 -12 -12 -12 -12 -12 -12 -13 -12 -12 -12 -12 -12 -12 -12 -12 -12 -12 -11 -11 -11 -11 -11 -12 -12 -12 -12 -12 -13 -13 -14 -14 -15 -15 -15 -15 -15 -15 -15 -16 -15 -15 -15 -14 -14 -13 -13
-10 -11 -12 -13 -12 -12 -12 -12 -12 -13 -12 -12 -12 -12 -12 -12 -12 -12 -12 -11 -12 -11 -11 -11 -11 -12 -12 -12 -12 -13 -13 -13 -14 -14 -14 -14 -15 -15 -15 -15 -15 -15 -15 -15 -15 -14 -14 -14 -13
-11 -12 -12 -12 -12 -11 -12 -12 -12 -12 -12 -12 -12 -12 -12 -11 -12 -12 -12 -12 -12 -12 -12 -12 -11 -12 -11 -11 -13 -13 -13 -13 -13 -13 -13 -14 -14 -14 -15 -15 -15 -15 -15 -15 -15 -14 -14 -13 -13
-12 -12 -12 -12 -12 -11 -12 -11 -11 -11 -11 -11 -12 -12 -12 -12 -12 -12 -12 -12 -12 -12 -12 -12 -12 -12 -12 -11 -12 -13 -13 -13 -13 -13 -13 -14 -14 -14 -14 -14 -14 -15 -15 -15 -15 -14 -14 -13 -13
-11 -11 -11 -11 -11 -11 -11 -11 -11 -11 -11 -11 -12 -12 -12 -12 -12 -12 -12 -12 -12 -12 -12 -12 -12 -12 -12 -12 -12 -12 -12 -12 -13 -13 -13 -13 -14 -14 -14 -14 -14 -14 -14 -14 -14 -14 -14 -13 -13
-11 -11 -11 -11 -11 -11 -11 -10 -11 -11 -11 -11 -12 -12 -12 -12 -12 -12 -13 -12 -12 -12 -12 -12 -12 -12 -12 -12 -12 -12 -13 -12 -13 -13 -13 -13 -13 -14 -14 -14 -14 -14 -14 -14 -14 -14 -14 -14 -13
-11 -11 -11 -11 -11 -11 -11 -11 -11 -11 -11 -12 -12 -12 -12 -12 -12 -13 -12 -12 -12 -12 -12 -12 -12 -12 -12 -12 -12 -12 -12 -12 -12 -13 -13 -13 -13 -13 -13 -14 -14 -14 -14 -14 -14 -14 -13 -13 -13
-11 -11 -11 -11 -11 -11 -11 -11 -11 -12 -12 -12 -12 -12 -12 -12 -12 -13 -12 -12 -12 -12 -12 -12 -12 -12 -12 -12 -12 -12 -12 -13 -12 -13 -13 -13 -13 -13 -13 -14 -14 -15 -14 -14 -14 -14 -13 -13 -13
-11 -10 -10 -11 -11 -11 -11 -12 -13 -13 -12 -12 -12 -12 -12 -12 -12 -12 -12 -13 -12 -12 -12 -12 -12 -12 -12 -13 -12 -12 -12 -12 -12 -12 -12 -12 -13 -13 -13 -13 -13 -14 -15 -15 -14 -14 -13 -13 -12
-10 -10 -11 -11 -12 -11 -12 -12 -12 -13 -13 -12 -11 -12 -12 -12 -12 -12 -12 -12 -12 -12 -13 -12 -12 -12 -12 -13 -13 -13 -13 -13 -13 -12 -12 -12 -12 -13 -13 -13 -13 -13 -14 -14 -15 -14 -14 -13 -13
-11 -11 -11 -12 -12 -13 -13 -12 -13 -13 -13 -12 -12 -13 -12 -12 -13 -12 -12 -12 -12 -12 -13 -12 -13 -12 -12 -13 -13 -13 -13 -13 -13 -12 -12 -12 -13 -12 -12 -12 -13 -13 -13 -14 -14 -14 -14 -14 -13
-10 -10 -11 -10 -11 -12 -13 -13 -13 -14 -13 -12 -13 -13 -12 -12 -12 -12 -12 -12 -12 -12 -13 -12 -12 -12 -12 -12 -13 -13 -13 -13 -13 -13 -13 -12 -13 -13 -13 -13 -13 -13 -13 -13 -13 -13 -13 -13 -13
-10 -10 -10 -10 -10 -13 -14 -12 -14 -14 -14 -13 -13 -13 -13 -12 -12 -12 -12 -12 -12 -12 -12 -12 -12 -12 -12 -12 -12 -13 -13 -13 -13 -13 -13 -13 -13 -13 -13 -13 -13 -13 -13 -13 -13 -14 -13 -13 -12
-10 -10 -9 -10 -11 -13 -14 -13 -14 -14 -13 -13 -13 -13 -13 -13 -12 -12 -12 -12 -12 -12 -12 -12 -12 -12 -12 -12 -12 -12 -13 -12 -13 -12 -13 -12 -13 -13 -12 -12 -12 -13 -12 -12 -13 -13 -13 -12 -12
-11 -10 -10 -10 -11 -11 -13 -13 -14 -14 -13 -13 -14 -13 -13 -13 -12 -12 -12 -12 -12 -12 -12 -12 -13 -12 -12 -12 -12 -12 -12 -12 -13 -12 -13 -12 -12 -13 -12 -12 -11 -12 -12 -12 -12 -13 -12 -12 -13

GFSSGP_500_temp_009.txt.gz
Temp
-7 -7 -7 -7 -7 -6 -9 -8 -8 -9 -10 -7 -7 -7 -7 -7 -7 -8 -8 -7 -7 -7 -7 -8 -8 -8 -8 -8 -8 -8 -8 -9 -9 -9 -9 -9 -10 -10 -9 -10 -10 -10 -10 -11 -10 -10 -10 -10 -10
-7 -7 -7 -7 -7 -9 -8 -10 -10 -9 -8 -8 -7 -7 -8 -8 -8 -8 -7 -8 -7 -7 -8 -8 -8 -8 -8 -8 -9 -9 -9 -9 -9 -9 -9 -9 -10 -10 -10 -10 -10 -10 -10 -11 -11 -10 -10 -10 -10
-8 -8 -8 -8 -10 -9 -9 -10 -9 -10 -8 -9 -9 -8 -8 -8 -8 -8 -8 -8 -7 -7 -8 -8 -8 -8 -8 -9 -9 -9 -9 -10 -10 -10 -10 -10 -10 -10 -11 -10 -10 -10 -10 -11 -11 -10 -10 -10 -10
-8 -8 -8 -8 -10 -9 -9 -9 -10 -9 -10 -9 -10 -10 -8 -9 -8 -8 -8 -8 -8 -8 -8 -8 -9 -9 -9 -9 -9 -9 -9 -10 -10 -10 -11 -11 -11 -11 -11 -11 -10 -11 -11 -11 -11 -10 -10 -10 -10
-9 -9 -9 -11 -10 -10 -9 -10 -9 -10 -11 -12 -10 -10 -9 -9 -9 -9 -8 -8 -8 -9 -9 -8 -9 -9 -9 -9 -10 -9 -10 -10 -10 -10 -10 -11 -11 -11 -11 -11 -11 -11 -11 -11 -11 -11 -10 -10 -10
-9 -9 -9 -11 -10 -9 -11 -11 -9 -11 -12 -13 -11 -10 -10 -9 -9 -9 -9 -8 -9 -9 -9 -9 -9 -10 -9 -10 -10 -10 -10 -10 -11 -11 -11 -11 -11 -12 -12 -12 -12 -12 -12 -11 -11 -11 -11 -10 -10
-10 -10 -10 -11 -11 -10 -10 -10 -10 -11 -13 -13 -12 -10 -10 -9 -9 -9 -9 -9 -9 -9 -10 -10 -10 -10 -10 -10 -10 -10 -10 -10 -11 -12 -12 -12 -12 -12 -12 -12 -12 -12 -12 -12 -12 -11 -11 -11 -11
-10 -10 -10 -10 -11 -11 -11 -11 -11 -10 -11 -11 -11 -11 -10 -9 -9 -9 -9 -9 -9 -10 -10 -10 -10 -10 -10 -10 -10 -10 -10 -11 -12 -12 -13 -13 -13 -13 -13 -13 -13 -13 -13 -12 -12 -12 -11 -11 -11
-10 -10 -10 -11 -11 -11 -11 -11 -12 -11 -12 -11 -11 -10 -10 -10 -10 -10 -9 -9 -9 -10 -10 -10 -10 -10 -10 -10 -10 -10 -11 -11 -12 -12 -12 -13 -13 -13 -13 -13 -13 -13 -13 -13 -12 -12 -11 -11 -11
-10 -10 -10 -11 -12 -11 -11 -12 -12 -12 -12 -11 -11 -11 -11 -11 -10 -10 -10 -10 -10 -10 -10 -10 -11 -10 -10 -10 -10 -10 -11 -11 -12 -12 -13 -13 -13 -14 -14 -14 -14 -14 -13 -13 -13 -12 -11 -12 -12
-10 -10 -11 -11 -11 -11 -11 -11 -13 -12 -12 -13 -13 -12 -11 -11 -10 -10 -10 -10 -10 -10 -10 -10 -10 -10 -10 -10 -10 -10 -10 -11 -12 -13 -13 -14 -15 -14 -14 -15 -15 -15 -14 -14 -13 -13 -12 -12 -12
-10 -9 -10 -10 -11 -11 -11 -12 -12 -12 -12 -13 -12 -12 -11 -11 -11 -11 -11 -10 -10 -10 -10 -10 -10 -10 -11 -11 -10 -10 -11 -11 -12 -13 -13 -14 -15 -14 -15 -16 -15 -15 -14 -14 -14 -13 -12 -12 -12
-10 -9 -10 -10 -10 -11 -11 -11 -12 -12 -13 -12 -12 -12 -12 -12 -11 -11 -11 -11 -11 -11 -10 -11 -11 -10 -11 -10 -11 -11 -11 -11 -12 -12 -13 -13 -14 -15 -15 -15 -15 -15 -14 -14 -14 -13 -13 -12 -12
-10 -9 -10 -11 -11 -11 -10 -12 -12 -12 -12 -12 -13 -13 -13 -11 -11 -11 -11 -11 -11 -11 -11 -11 -11 -11 -11 -11 -11 -11 -11 -12 -13 -13 -14 -14 -14 -15 -15 -15 -14 -14 -15 -14 -15 -14 -13 -12 -12
-10 -10 -11 -10 -10 -11 -11 -11 -12 -11 -12 -12 -12 -12 -12 -11 -11 -11 -11 -11 -11 -11 -11 -11 -11 -11 -11 -11 -11 -11 -11 -12 -12 -13 -13 -14 -14 -15 -15 -15 -15 -15 -15 -15 -15 -14 -13 -13 -13
-10 -10 -10 -11 -12 -12 -11 -11 -13 -13 -12 -13 -12 -12 -12 -12 -12 -11 -11 -12 -12 -12 -11 -11 -11 -11 -11 -11 -11 -11 -12 -12 -12 -13 -13 -14 -14 -15 -15 -15 -15 -15 -15 -15 -15 -15 -13 -13 -13
-10 -10 -11 -12 -12 -12 -11 -11 -12 -12 -13 -12 -12 -12 -12 -12 -12 -11 -11 -12 -12 -12 -11 -11 -11 -11 -11 -11 -11 -11 -12 -12 -12 -13 -13 -13 -14 -14 -15 -15 -15 -15 -15 -15 -15 -14 -14 -13 -13
-11 -12 -12 -12 -12 -12 -12 -12 -13 -13 -12 -12 -12 -12 -12 -12 -11 -11 -11 -12 -12 -12 -12 -12 -11 -11 -11 -11 -11 -12 -12 -12 -13 -13 -13 -13 -13 -14 -14 -15 -15 -15 -15 -15 -14 -14 -14 -13 -13
-11 -12 -12 -12 -12 -12 -13 -12 -11 -13 -12 -11 -11 -12 -12 -11 -11 -11 -12 -12 -12 -12 -12 -12 -11 -11 -11 -12 -12 -12 -12 -13 -13 -13 -13 -13 -13 -14 -14 -14 -15 -15 -15 -15 -15 -15 -14 -14 -13
-11 -12 -12 -12 -13 -13 -13 -11 -11 -11 -11 -11 -11 -11 -11 -11 -12 -12 -12 -12 -13 -12 -12 -12 -12 -11 -12 -12 -12 -12 -12 -13 -13 -13 -13 -13 -13 -14 -14 -14 -14 -14 -15 -15 -15 -14 -14 -14 -13
-11 -10 -11 -11 -13 -13 -12 -11 -12 -13 -11 -11 -11 -11 -11 -12 -12 -12 -12 -13 -12 -12 -12 -12 -12 -11 -12 -12 -12 -12 -12 -12 -12 -13 -13 -13 -13 -14 -14 -14 -14 -14 -14 -14 -14 -14 -14 -14 -13
-12 -11 -11 -11 -12 -13 -13 -12 -13 -12 -12 -11 -11 -11 -11 -11 -12 -12 -12 -13 -12 -12 -12 -12 -12 -12 -12 -12 -12 -12 -12 -12 -12 -12 -13 -13 -13 -13 -13 -14 -14 -14 -14 -14 -14 -14 -14 -13 -13
-11 -11 -12 -12 -11 -11 -12 -12 -12 -13 -13 -13 -12 -12 -11 -11 -12 -12 -12 -12 -12 -12 -12 -12 -12 -12 -12 -12 -12 -12 -12 -12 -12 -12 -12 -13 -13 -13 -13 -14 -14 -14 -14 -14 -14 -14 -14 -13 -13
-11 -12 -11 -12 -12 -11 -12 -13 -12 -12 -13 -13 -13 -12 -11 -12 -12 -12 -12 -12 -12 -12 -12 -12 -12 -12 -12 -12 -12 -12 -12 -12 -12 -12 -12 -12 -13 -13 -13 -14 -14 -14 -14 -14 -14 -14 -14 -14 -14
-11 -11 -11 -12 -13 -12 -13 -12 -12 -12 -13 -12 -12 -13 -12 -12 -12 -12 -12 -12 -12 -13 -12 -12 -12 -12 -12 -12 -12 -12 -12 -12 -12 -12 -12 -12 -12 -13 -13 -13 -14 -14 -14 -14 -14 -14 -14 -14 -13
-9 -10 -11 -13 -12 -11 -12 -11 -12 -13 -13 -12 -12 -13 -13 -13 -12 -12 -12 -12 -12 -12 -12 -12 -12 -12 -12 -12 -12 -13 -12 -12 -12 -13 -12 -12 -12 -12 -13 -13 -13 -14 -14 -14 -13 -13 -13 -13 -12
-10 -10 -11 -12 -12 -12 -11 -12 -13 -13 -13 -13 -13 -13 -13 -13 -12 -12 -12 -12 -12 -12 -12 -12 -12 -12 -12 -12 -12 -13 -12 -12 -13 -12 -12 -12 -12 -13 -13 -13 -13 -13 -14 -13 -13 -13 -13 -13 -13
-11 -11 -11 -11 -12 -13 -12 -12 -12 -12 -13 -13 -13 -12 -13 -13 -12 -12 -12 -12 -12 -12 -12 -12 -12 -11 -12 -12 -12 -12 -12 -12 -12 -12 -13 -12 -12 -12 -13 -13 -12 -13 -13 -13 -13 -13 -13 -13 -12
-10 -11 -10 -11 -13 -12 -12 -11 -12 -13 -13 -13 -14 -12 -13 -13 -12 -12 -12 -12 -12 -12 -12 -12 -12 -12 -12 -12 -12 -12 -12 -12 -12 -12 -13 -12 -12 -11 -12 -13 -13 -13 -13 -13 -13 -12 -13 -12 -12
-11 -10 -11 -11 -11 -13 -12 -11 -12 -12 -13 -13 -13 -12 -12 -13 -12 -12 -12 -12 -12 -12 -12 -12 -12 -11 -12 -12 -12 -12 -12 -12 -12 -12 -13 -12 -12 -11 -12 -12 -13 -13 -13 -12 -13 -13 -12 -12 -12

GFSSGP_500_temp_015.txt.gz
Temp
-7 -7 -7 -7 -7 -7 -6 -6 -9 -9 -8 -8 -8 -8 -8 -7 -7 -7 -8 -8 -7 -7 -7 -7 -8 -8 -7 -7 -7 -7 -7 -7 -7 -7 -7 -7 -6 -6 -6 -6 -7 -7 -8 -7 -8 -8 -7 -8 -8
-8 -7 -7 -7 -7 -7 -7 -8 -8 -9 -8 -8 -8 -9 -8 -8 -7 -7 -8 -7 -7 -8 -8 -8 -8 -8 -8 -8 -7 -8 -7 -7 -7 -7 -7 -7 -7 -7 -7 -7 -7 -8 -8 -8 -8 -8 -8 -9 -9
-8 -8 -8 -8 -8 -7 -7 -8 -9 -10 -9 -8 -9 -8 -8 -7 -7 -7 -9 -8 -8 -8 -8 -8 -9 -8 -8 -8 -8 -8 -8 -7 -7 -7 -7 -7 -8 -8 -8 -8 -8 -8 -9 -9 -9 -9 -9 -9 -9
-9 -8 -8 -9 -8 -8 -9 -9 -9 -9 -9 -9 -9 -9 -8 -7 -8 -8 -9 -9 -8 -8 -8 -8 -8 -8 -8 -8 -9 -8 -8 -8 -8 -8 -8 -8 -8 -8 -9 -9 -9 -9 -9 -9 -10 -10 -10 -10 -10
-9 -8 -8 -8 -9 -8 -9 -9 -9 -9 -10 -10 -9 -8 -8 -8 -7 -9 -9 -9 -9 -9 -9 -9 -9 -9 -9 -9 -9 -8 -8 -8 -8 -8 -8 -8 -9 -9 -9 -9 -9 -10 -9 -9 -10 -10 -10 -10 -10
-9 -9 -9 -9 -9 -9 -9 -9 -10 -10 -10 -10 -10 -9 -9 -8 -8 -10 -10 -10 -10 -9 -10 -10 -9 -9 -9 -9 -9 -8 -8 -9 -9 -9 -9 -9 -9 -9 -10 -10 -10 -10 -10 -10 -10 -11 -11 -11 -11
-9 -10 -9 -9 -9 -9 -10 -10 -10 -10 -10 -10 -10 -10 -9 -9 -10 -10 -11 -10 -10 -10 -9 -9 -9 -9 -10 -9 -9 -10 -10 -9 -9 -9 -9 -9 -10 -10 -10 -10 -10 -11 -11 -11 -11 -12 -11 -11 -11
-10 -10 -10 -9 -10 -10 -11 -10 -10 -10 -10 -10 -11 -11 -10 -10 -11 -11 -10 -11 -11 -10 -10 -9 -9 -9 -9 -9 -9 -9 -10 -10 -9 -9 -10 -10 -10 -10 -10 -11 -11 -12 -12 -12 -12 -12 -12 -12 -12
-10 -10 -10 -10 -10 -10 -11 -11 -11 -11 -10 -11 -11 -11 -10 -9 -11 -12 -11 -11 -11 -10 -10 -9 -9 -9 -9 -9 -9 -9 -9 -10 -10 -10 -10 -10 -10 -11 -11 -11 -12 -12 -12 -13 -13 -13 -13 -13 -12
-11 -11 -10 -10 -10 -10 -10 -10 -10 -10 -11 -11 -12 -10 -10 -11 -12 -12 -12 -12 -11 -11 -10 -9 -9 -10 -10 -10 -10 -10 -10 -10 -10 -10 -11 -11 -11 -11 -12 -12 -13 -13 -13 -14 -14 -14 -13 -13 -13
-11 -11 -10 -10 -10 -11 -11 -10 -11 -11 -11 -11 -11 -11 -11 -12 -12 -12 -11 -11 -10 -10 -10 -10 -10 -11 -11 -11 -11 -10 -10 -11 -11 -11 -11 -11 -10 -11 -12 -13 -13 -13 -14 -14 -14 -14 -14 -14 -13
-12 -11 -10 -10 -11 -10 -10 -10 -10 -11 -11 -12 -12 -11 -11 -12 -11 -11 -12 -11 -11 -11 -11 -11 -11 -11 -11 -11 -11 -11 -11 -11 -11 -11 -11 -11 -11 -11 -12 -13 -13 -14 -14 -14 -14 -14 -14 -14 -13
-12 -11 -11 -11 -11 -11 -11 -10 -10 -10 -11 -12 -12 -12 -12 -12 -11 -11 -11 -11 -11 -11 -11 -11 -11 -11 -11 -11 -11 -11 -11 -11 -11 -11 -12 -12 -12 -12 -13 -13 -13 -14 -15 -15 -15 -15 -14 -14 -13
-11 -11 -11 -11 -11 -11 -11 -11 -10 -11 -12 -13 -12 -11 -12 -12 -12 -11 -11 -11 -11 -11 -12 -12 -12 -12 -12 -12 -11 -11 -11 -11 -11 -11 -11 -12 -12 -13 -13 -13 -14 -14 -15 -15 -15 -15 -14 -14 -13
-11 -10 -10 -10 -11 -10 -11 -10 -10 -12 -12 -12 -11 -11 -11 -11 -11 -11 -11 -12 -12 -12 -12 -12 -12 -12 -12 -12 -12 -12 -12 -12 -11 -11 -12 -12 -12 -12 -13 -14 -14 -14 -15 -15 -15 -15 -15 -14 -13
-10 -10 -9 -9 -11 -10 -11 -9 -12 -12 -11 -12 -12 -12 -11 -12 -11 -11 -11 -11 -12 -12 -12 -13 -12 -12 -12 -12 -12 -12 -12 -12 -12 -12 -12 -12 -12 -12 -13 -14 -14 -14 -15 -15 -15 -15 -15 -14 -13
-9 -8 -9 -9 -11 -10 -12 -11 -12 -12 -12 -12 -12 -12 -12 -13 -12 -11 -11 -11 -12 -13 -12 -13 -13 -12 -12 -12 -12 -12 -12 -12 -12 -12 -12 -12 -12 -12 -13 -14 -14 -14 -15 -15 -14 -15 -15 -15 -14
-10 -10 -10 -10 -11 -11 -11 -11 -11 -11 -12 -11 -12 -12 -13 -12 -12 -11 -12 -12 -13 -13 -13 -13 -12 -12 -12 -12 -12 -12 -12 -12 -12 -12 -12 -12 -12 -13 -13 -14 -14 -14 -15 -15 -15 -14 -15 -14 -14
-10 -11 -11 -10 -10 -12 -11 -11 -11 -12 -11 -11 -12 -13 -12 -12 -12 -11 -12 -13 -13 -13 -13 -13 -12 -12 -12 -12 -12 -12 -12 -12 -12 -12 -12 -12 -13 -13 -13 -14 -14 -14 -15 -15 -15 -14 -14 -14 -14
-10 -11 -11 -11 -11 -12 -11 -11 -12 -12 -12 -12 -12 -13 -11 -11 -11 -12 -12 -13 -13 -13 -13 -12 -12 -12 -12 -12 -12 -12 -12 -12 -12 -12 -12 -12 -13 -13 -13 -14 -14 -14 -15 -15 -14 -14 -14 -14 -13
-10 -10 -11 -11 -11 -12 -12 -12 -11 -11 -12 -12 -12 -12 -11 -11 -11 -12 -12 -12 -12 -13 -13 -12 -12 -12 -12 -12 -12 -12 -12 -12 -12 -12 -12 -12 -13 -13 -13 -14 -14 -14 -14 -15 -14 -14 -14 -14 -13
-10 -11 -11 -11 -11 -11 -11 -10 -10 -10 -11 -12 -12 -11 -12 -11 -11 -12 -12 -12 -12 -13 -13 -12 -12 -12 -12 -12 -12 -12 -12 -12 -12 -12 -12 -12 -12 -13 -13 -14 -14 -14 -14 -14 -14 -14 -14 -14 -14
-10 -11 -11 -12 -12 -12 -12 -11 -9 -11 -11 -11 -11 -11 -11 -11 -12 -12 -12 -12 -12 -12 -12 -12 -12 -12 -12 -12 -12 -12 -12 -12 -12 -12 -12 -12 -12 -13 -14 -14 -14 -14 -14 -14 -14 -14 -14 -14 -13
-11 -11 -11 -12 -12 -12 -11 -11 -10 -11 -11 -11 -11 -11 -12 -12 -12 -12 -12 -12 -12 -12 -12 -12 -12 -12 -12 -12 -12 -12 -12 -12 -12 -13 -12 -12 -13 -13 -14 -14 -14 -14 -14 -14 -14 -14 -14 -13 -13
-11 -13 -12 -13 -12 -10 -10 -12 -11 -11 -11 -12 -11 -11 -12 -11 -12 -12 -12 -12 -12 -12 -12 -12 -12 -12 -12 -12 -12 -12 -12 -12 -12 -13 -13 -13 -13 -13 -14 -14 -14 -14 -14 -14 -14 -14 -13 -13 -13
-10 -13 -12 -12 -11 -10 -12 -11 -10 -11 -12 -11 -12 -11 -11 -11 -11 -11 -12 -12 -12 -12 -12 -12 -12 -12 -12 -12 -12 -12 -12 -12 -12 -13 -13 -13 -13 -13 -13 -14 -14 -14 -14 -14 -14 -14 -14 -14 -13
-11 -11 -11 -12 -12 -12 -12 -11 -12 -11 -11 -12 -11 -11 -11 -11 -11 -11 -12 -12 -12 -12 -12 -12 -12 -12 -12 -12 -12 -12 -12 -12 -12 -13 -13 -12 -13 -13 -13 -13 -13 -14 -14 -14 -14 -13 -14 -14 -14
-11 -11 -13 -12 -12 -11 -10 -11 -11 -11 -12 -11 -11 -10 -11 -11 -11 -11 -11 -11 -11 -12 -12 -12 -12 -12 -12 -12 -12 -12 -12 -12 -12 -12 -12 -12 -13 -12 -13 -13 -13 -13 -14 -14 -13 -13 -13 -13 -13
-11 -13 -13 -13 -12 -11 -11 -11 -11 -11 -12 -11 -10 -11 -12 -12 -11 -11 -11 -11 -12 -12 -12 -12 -12 -12 -12 -12 -12 -11 -12 -12 -13 -12 -12 -12 -12 -13 -13 -13 -13 -13 -13 -13 -13 -13 -13 -13 -13
-11 -12 -12 -12 -10 -10 -11 -11 -11 -11 -11 -11 -11 -11 -11 -11 -11 -11 -11 -11 -12 -11 -12 -12 -12 -12 -12 -12 -12 -12 -12 -12 -12 -12 -13 -12 -12 -13 -13 -13 -13 -13 -13 -13 -13 -13 -13 -13 -13

GFSSGP_500_temp_021.txt.gz
Temp
-7 -7 -7 -7 -7 -7 -8 -8 -8 -8 -9 -8 -8 -7 -7 -7 -8 -9 -9 -10 -9 -9 -8 -8 -8 -8 -8 -9 -8 -8 -8 -8 -8 -8 -7 -7 -7 -8 -8 -8 -8 -8 -8 -7 -7 -6 -7 -7 -7
-7 -7 -7 -7 -7 -7 -8 -8 -8 -9 -9 -9 -9 -9 -8 -8 -9 -9 -9 -9 -9 -9 -9 -8 -8 -9 -8 -8 -8 -8 -8 -8 -8 -8 -8 -8 -8 -8 -8 -8 -8 -8 -8 -8 -7 -7 -7 -7 -7
-8 -7 -8 -8 -8 -8 -9 -9 -9 -9 -10 -9 -9 -9 -8 -8 -8 -8 -8 -9 -9 -9 -9 -9 -9 -9 -9 -9 -9 -9 -9 -9 -8 -9 -9 -8 -8 -8 -8 -8 -8 -8 -8 -8 -8 -8 -8 -7 -8
-8 -8 -8 -8 -8 -9 -9 -9 -9 -9 -9 -10 -10 -9 -9 -9 -8 -8 -9 -9 -9 -9 -10 -9 -10 -10 -10 -9 -9 -9 -9 -9 -9 -9 -9 -9 -9 -9 -9 -8 -8 -8 -8 -9 -9 -9 -9 -9 -8
-9 -8 -9 -9 -9 -9 -10 -9 -9 -9 -9 -8 -9 -9 -9 -9 -9 -9 -10 -10 -10 -11 -11 -11 -11 -11 -10 -10 -9 -9 -10 -10 -9 -9 -9 -9 -9 -9 -9 -9 -8 -8 -8 -9 -9 -9 -9 -9 -9
-9 -9 -9 -9 -9 -9 -10 -10 -10 -10 -10 -9 -9 -9 -9 -10 -10 -10 -10 -11 -11 -11 -11 -11 -11 -11 -11 -11 -11 -11 -10 -9 -9 -9 -9 -9 -9 -9 -9 -9 -9 -9 -9 -9 -9 -9 -10 -10 -10
-10 -10 -9 -9 -9 -10 -10 -10 -10 -10 -10 -10 -10 -10 -10 -10 -10 -10 -11 -11 -11 -11 -11 -12 -12 -11 -11 -11 -11 -11 -11 -11 -10 -10 -10 -9 -9 -9 -9 -9 -9 -10 -10 -10 -10 -10 -10 -10 -10
-11 -10 -9 -10 -10 -10 -10 -11 -11 -11 -10 -10 -10 -10 -10 -11 -10 -11 -11 -10 -10 -11 -12 -12 -12 -12 -12 -11 -11 -11 -10 -11 -10 -10 -10 -10 -10 -10 -10 -10 -10 -10 -10 -10 -10 -10 -10 -10 -10
-10 -10 -10 -10 -11 -10 -10 -11 -11 -12 -11 -11 -11 -10 -10 -10 -11 -11 -11 -11 -11 -11 -11 -12 -12 -12 -11 -11 -11 -10 -10 -10 -10 -10 -10 -10 -10 -10 -10 -10 -10 -11 -10 -10 -10 -11 -11 -11 -11
-10 -10 -10 -11 -11 -11 -10 -11 -11 -12 -12 -11 -11 -11 -11 -11 -11 -11 -11 -11 -12 -12 -11 -12 -12 -12 -12 -11 -11 -10 -10 -10 -10 -10 -10 -10 -10 -11 -11 -11 -11 -11 -11 -11 -11 -11 -11 -12 -12
-11 -11 -11 -11 -11 -11 -11 -10 -11 -11 -11 -11 -12 -11 -10 -11 -11 -11 -12 -12 -12 -12 -12 -12 -11 -12 -11 -11 -11 -11 -11 -11 -11 -11 -11 -11 -11 -12 -11 -12 -12 -11 -11 -11 -12 -12 -13 -13 -13
-11 -11 -11 -11 -11 -11 -11 -11 -10 -10 -11 -12 -11 -11 -11 -11 -11 -11 -12 -12 -12 -13 -14 -12 -11 -12 -12 -12 -11 -11 -11 -12 -12 -12 -12 -12 -12 -12 -12 -12 -12 -11 -11 -12 -12 -13 -13 -13 -13
-12 -12 -12 -12 -11 -11 -11 -11 -11 -9 -10 -11 -11 -10 -11 -12 -11 -12 -12 -12 -13 -13 -13 -12 -12 -12 -12 -12 -12 -12 -12 -12 -12 -12 -12 -12 -12 -12 -12 -12 -12 -12 -11 -12 -13 -13 -13 -14 -14
-12 -12 -11 -12 -11 -11 -11 -11 -11 -9 -11 -11 -10 -10 -12 -12 -12 -13 -12 -12 -13 -13 -14 -13 -12 -12 -13 -13 -13 -13 -13 -12 -12 -12 -12 -12 -12 -12 -12 -12 -12 -12 -12 -13 -13 -14 -14 -14 -15
-12 -12 -12 -11 -10 -11 -12 -10 -9 -10 -11 -10 -10 -11 -12 -12 -13 -13 -12 -12 -12 -12 -13 -13 -12 -12 -13 -13 -13 -13 -13 -12 -12 -12 -12 -12 -13 -12 -12 -12 -12 -12 -13 -13 -14 -14 -14 -15 -15
-12 -11 -10 -10 -12 -11 -13 -9 -10 -11 -11 -9 -10 -11 -12 -12 -12 -13 -12 -12 -12 -13 -13 -13 -12 -13 -13 -13 -13 -13 -13 -12 -12 -12 -12 -12 -12 -12 -12 -12 -13 -13 -13 -14 -14 -14 -15 -15 -16
-11 -9 -10 -11 -12 -12 -12 -9 -11 -11 -10 -10 -11 -12 -12 -12 -13 -13 -13 -12 -12 -13 -13 -13 -12 -13 -13 -13 -13 -13 -13 -12 -12 -12 -13 -12 -13 -12 -13 -13 -13 -13 -14 -14 -15 -15 -15 -16 -15
-10 -11 -12 -10 -11 -12 -11 -8 -10 -10 -11 -11 -11 -12 -12 -12 -13 -13 -12 -13 -13 -13 -13 -13 -13 -13 -13 -13 -13 -13 -12 -12 -12 -12 -13 -12 -12 -12 -13 -13 -13 -14 -14 -14 -15 -15 -15 -15 -15
-13 -13 -11 -10 -12 -11 -10 -10 -9 -10 -9 -11 -11 -11 -11 -12 -13 -13 -13 -13 -13 -14 -13 -13 -13 -13 -14 -13 -13 -13 -13 -13 -13 -12 -13 -13 -13 -13 -13 -13 -14 -14 -14 -15 -15 -15 -15 -15 -15
-12 -12 -10 -10 -12 -11 -10 -10 -10 -9 -10 -10 -11 -11 -11 -12 -12 -12 -13 -13 -13 -13 -13 -13 -13 -13 -13 -13 -13 -13 -13 -13 -13 -13 -12 -13 -13 -13 -13 -13 -14 -14 -15 -15 -15 -15 -15 -14 -15
-11 -11 -11 -11 -12 -12 -11 -10 -10 -10 -11 -11 -11 -11 -11 -11 -12 -12 -13 -13 -13 -14 -13 -13 -13 -13 -13 -13 -13 -12 -13 -13 -13 -13 -12 -13 -13 -13 -13 -14 -14 -14 -15 -15 -15 -15 -15 -15 -15
-11 -11 -12 -11 -11 -11 -11 -9 -10 -10 -11 -11 -11 -11 -11 -12 -12 -13 -13 -14 -13 -13 -13 -12 -12 -13 -13 -12 -13 -12 -12 -13 -13 -12 -13 -13 -13 -13 -14 -14 -14 -15 -15 -15 -15 -14 -15 -15 -14
-11 -12 -11 -11 -11 -11 -11 -10 -9 -11 -10 -12 -10 -11 -12 -12 -12 -13 -12 -12 -12 -12 -12 -12 -12 -12 -12 -12 -12 -12 -12 -13 -13 -12 -13 -13 -13 -14 -14 -14 -14 -14 -15 -14 -15 -15 -15 -14 -14
-12 -11 -11 -11 -11 -10 -11 -10 -8 -10 -12 -10 -11 -11 -11 -11 -12 -12 -12 -12 -12 -12 -12 -12 -12 -12 -12 -12 -12 -12 -12 -12 -12 -13 -13 -13 -13 -14 -14 -14 -14 -14 -15 -14 -14 -14 -14 -14 -13
-11 -11 -11 -10 -10 -9 -11 -10 -9 -10 -11 -10 -11 -11 -11 -11 -12 -12 -12 -11 -11 -12 -12 -12 -12 -12 -12 -12 -12 -12 -12 -12 -12 -12 -13 -13 -13 -14 -14 -14 -14 -14 -14 -14 -14 -14 -14 -14 -13
-10 -11 -10 -9 -10 -10 -10 -8 -10 -11 -11 -10 -11 -11 -12 -11 -12 -12 -12 -11 -11 -12 -12 -12 -12 -12 -12 -12 -12 -12 -12 -12 -12 -12 -12 -13 -13 -14 -14 -14 -14 -15 -14 -14 -14 -14 -14 -13 -13
-10 -10 -11 -11 -10 -10 -10 -9 -11 -11 -9 -11 -11 -11 -12 -12 -12 -12 -11 -11 -12 -12 -12 -12 -12 -12 -12 -12 -12 -12 -12 -12 -12 -12 -12 -13 -13 -13 -14 -14 -14 -14 -15 -14 -14 -14 -13 -13 -13
-11 -11 -11 -10 -10 -10 -10 -9 -10 -10 -10 -11 -11 -11 -12 -12 -12 -11 -11 -12 -12 -12 -11 -12 -12 -12 -12 -12 -12 -12 -12 -12 -12 -12 -13 -13 -13 -13 -13 -14 -14 -14 -14 -14 -13 -14 -13 -13 -13
-10 -9 -11 -10 -10 -9 -9 -9 -9 -11 -11 -11 -11 -12 -13 -12 -11 -11 -11 -11 -11 -12 -11 -12 -12 -12 -12 -12 -12 -12 -12 -12 -13 -13 -13 -12 -13 -13 -13 -13 -14 -14 -14 -14 -13 -13 -12 -12 -12
-11 -10 -10 -9 -9 -10 -10 -9 -10 -10 -10 -10 -11 -12 -12 -11 -11 -11 -11 -11 -11 -12 -11 -12 -12 -12 -12 -12 -12 -12 -12 -12 -12 -12 -12 -12 -13 -13 -13 -13 -13 -14 -13 -13 -13 -13 -13 -12 -12

GFSSGP_500_temp_024.txt.gz
Temp
-7 -7 -7 -7 -8 -7 -7 -8 -8 -7 -8 -8 -9 -9 -9 -9 -9 -10 -10 -10 -10 -10 -10 -9 -9 -8 -8 -9 -8 -8 -8 -8 -9 -9 -8 -8 -8 -8 -8 -8 -8 -8 -8 -7 -7 -7 -7 -7 -7
-7 -7 -7 -7 -8 -8 -8 -8 -8 -8 -8 -9 -9 -9 -9 -9 -9 -10 -10 -10 -10 -9 -9 -9 -9 -8 -8 -8 -8 -8 -9 -9 -9 -9 -9 -8 -8 -8 -8 -8 -8 -8 -8 -8 -7 -7 -7 -7 -7
-8 -7 -7 -7 -8 -8 -8 -8 -8 -9 -9 -9 -10 -10 -9 -9 -9 -9 -9 -9 -10 -9 -9 -9 -8 -8 -8 -9 -9 -10 -10 -10 -9 -9 -9 -9 -9 -9 -9 -8 -9 -9 -9 -8 -8 -8 -7 -7 -7
-8 -8 -8 -8 -8 -8 -8 -9 -9 -8 -9 -10 -10 -10 -9 -9 -9 -9 -9 -10 -10 -10 -10 -9 -9 -9 -8 -9 -10 -10 -10 -10 -10 -10 -10 -10 -10 -9 -9 -9 -9 -9 -9 -9 -8 -8 -8 -8 -8
-9 -8 -8 -8 -8 -9 -9 -9 -9 -9 -9 -10 -10 -10 -10 -10 -10 -9 -10 -10 -10 -10 -10 -10 -10 -9 -10 -10 -11 -11 -10 -10 -9 -9 -9 -9 -9 -9 -9 -9 -9 -9 -9 -9 -9 -9 -9 -8 -8
-9 -9 -9 -9 -9 -9 -9 -10 -10 -10 -10 -10 -10 -11 -11 -10 -10 -10 -10 -11 -11 -11 -11 -12 -11 -11 -11 -11 -10 -10 -10 -10 -10 -10 -9 -10 -10 -10 -10 -9 -9 -9 -9 -9 -9 -9 -9 -9 -9
-9 -9 -9 -9 -9 -9 -10 -10 -11 -10 -10 -11 -11 -11 -10 -11 -10 -10 -10 -11 -11 -11 -12 -12 -11 -11 -11 -11 -11 -11 -11 -11 -11 -11 -10 -10 -10 -10 -10 -10 -10 -9 -9 -10 -9 -10 -10 -10 -10
-10 -10 -9 -9 -10 -11 -10 -11 -11 -11 -11 -11 -11 -11 -11 -11 -11 -10 -11 -12 -12 -12 -12 -11 -11 -12 -12 -12 -12 -12 -12 -11 -11 -11 -11 -10 -10 -10 -10 -10 -10 -10 -10 -10 -10 -10 -10 -10 -10
-11 -9 -9 -9 -11 -10 -10 -11 -11 -11 -11 -12 -11 -11 -11 -11 -11 -11 -12 -12 -12 -12 -12 -12 -11 -11 -12 -12 -12 -12 -11 -11 -11 -10 -10 -10 -10 -10 -10 -11 -11 -11 -11 -11 -11 -10 -10 -10 -10
-10 -10 -10 -10 -11 -10 -11 -11 -11 -11 -11 -11 -11 -12 -11 -11 -10 -11 -12 -12 -12 -12 -13 -12 -12 -12 -12 -12 -12 -12 -11 -11 -11 -11 -11 -11 -11 -11 -11 -11 -11 -11 -10 -11 -11 -11 -11 -11 -10
-10 -9 -11 -11 -11 -11 -11 -11 -11 -10 -10 -11 -11 -12 -12 -11 -11 -11 -12 -12 -12 -12 -13 -13 -13 -13 -12 -12 -12 -12 -12 -11 -11 -12 -11 -11 -11 -12 -12 -12 -12 -11 -11 -11 -11 -11 -11 -10 -11
-11 -11 -12 -11 -12 -11 -11 -11 -10 -11 -11 -11 -11 -12 -12 -11 -11 -11 -12 -12 -12 -13 -13 -13 -13 -13 -13 -12 -12 -12 -11 -11 -12 -11 -12 -12 -12 -12 -12 -12 -12 -11 -11 -11 -12 -11 -11 -11 -12
-11 -11 -12 -12 -12 -12 -11 -10 -11 -11 -11 -11 -12 -12 -12 -12 -11 -11 -12 -12 -13 -13 -13 -14 -14 -14 -13 -12 -12 -12 -11 -12 -12 -12 -12 -12 -12 -12 -12 -12 -12 -12 -12 -12 -12 -12 -12 -12 -13
-12 -12 -12 -12 -12 -12 -10 -11 -12 -11 -12 -12 -12 -12 -12 -11 -11 -11 -12 -13 -14 -13 -14 -14 -14 -14 -12 -12 -12 -12 -12 -12 -12 -12 -12 -12 -12 -12 -12 -12 -12 -12 -12 -12 -12 -12 -13 -13 -13
-12 -11 -11 -11 -12 -10 -12 -11 -11 -11 -12 -12 -11 -12 -12 -11 -10 -11 -13 -13 -13 -13 -13 -13 -14 -13 -13 -13 -13 -12 -12 -12 -12 -12 -12 -12 -12 -12 -12 -12 -12 -12 -12 -12 -13 -13 -13 -13 -14
-12 -12 -10 -10 -12 -11 -12 -10 -10 -12 -12 -12 -11 -12 -11 -10 -10 -11 -13 -13 -13 -13 -13 -13 -13 -13 -13 -13 -13 -13 -13 -12 -13 -12 -12 -12 -12 -12 -13 -13 -12 -13 -13 -13 -13 -13 -14 -14 -14
-12 -10 -9 -10 -11 -12 -12 -11 -10 -12 -12 -11 -10 -10 -11 -10 -11 -11 -11 -12 -13 -13 -13 -13 -13 -13 -13 -13 -13 -13 -13 -13 -13 -13 -12 -13 -12 -13 -13 -13 -13 -13 -13 -13 -14 -14 -14 -14 -15
-9 -10 -10 -11 -11 -12 -13 -12 -10 -11 -12 -11 -10 -10 -10 -10 -11 -11 -11 -12 -13 -13 -13 -13 -13 -13 -13 -13 -13 -13 -13 -13 -13 -13 -13 -13 -13 -13 -13 -13 -13 -13 -13 -14 -14 -14 -15 -15 -15
-11 -11 -10 -11 -11 -13 -12 -12 -10 -10 -11 -10 -10 -9 -10 -11 -11 -11 -12 -12 -13 -13 -13 -13 -13 -13 -13 -13 -13 -13 -13 -13 -13 -13 -13 -13 -13 -13 -13 -13 -14 -14 -15 -14 -14 -15 -15 -15 -15
-12 -12 -11 -11 -13 -12 -12 -11 -10 -10 -11 -11 -10 -10 -11 -11 -11 -11 -12 -13 -13 -13 -13 -12 -13 -13 -13 -13 -13 -13 -13 -13 -13 -13 -13 -13 -13 -13 -13 -13 -14 -14 -15 -14 -15 -15 -15 -15 -15
-11 -11 -11 -13 -13 -12 -13 -10 -11 -11 -11 -11 -10 -10 -10 -11 -11 -11 -12 -13 -14 -13 -13 -13 -13 -13 -13 -13 -13 -13 -13 -12 -13 -13 -13 -13 -13 -13 -13 -14 -14 -14 -14 -14 -15 -15 -15 -15 -15
-12 -12 -12 -13 -13 -12 -12 -9 -10 -10 -11 -11 -10 -11 -10 -11 -11 -12 -12 -13 -12 -12 -12 -12 -13 -13 -12 -13 -13 -13 -12 -12 -12 -13 -13 -13 -13 -13 -13 -14 -14 -14 -14 -15 -15 -15 -15 -15 -15
-11 -13 -13 -13 -12 -12 -11 -10 -9 -11 -11 -11 -11 -10 -11 -11 -11 -12 -11 -12 -11 -11 -12 -12 -12 -12 -12 -13 -13 -13 -12 -12 -12 -13 -13 -13 -13 -14 -14 -14 -14 -14 -14 -15 -14 -15 -15 -15 -14
-13 -13 -13 -13 -12 -11 -10 -11 -8 -10 -11 -11 -11 -11 -11 -12 -12 -11 -11 -11 -11 -11 -11 -12 -12 -12 -12 -12 -12 -12 -12 -12 -12 -13 -13 -13 -13 -14 -14 -14 -14 -14 -14 -14 -14 -15 -14 -15 -15
-12 -12 -12 -12 -11 -10 -10 -11 -8 -11 -11 -11 -11 -11 -12 -12 -12 -11 -11 -11 -11 -11 -11 -12 -12 -12 -12 -12 -12 -12 -12 -12 -12 -12 -12 -13 -13 -13 -14 -14 -14 -14 -14 -14 -15 -14 -14 -14 -14
-12 -12 -12 -11 -11 -11 -10 -9 -8 -11 -11 -10 -11 -12 -11 -11 -11 -11 -11 -11 -11 -11 -11 -11 -12 -12 -12 -12 -12 -12 -12 -12 -12 -12 -13 -13 -13 -13 -14 -14 -14 -14 -14 -14 -14 -14 -14 -14 -14
-11 -11 -12 -11 -11 -10 -9 -9 -9 -11 -11 -10 -11 -12 -11 -11 -12 -12 -11 -11 -11 -11 -11 -12 -12 -12 -12 -12 -12 -12 -12 -12 -12 -13 -13 -13 -13 -13 -14 -14 -14 -14 -14 -14 -14 -14 -13 -13 -14
-11 -12 -11 -10 -10 -9 -9 -9 -10 -11 -11 -11 -11 -11 -11 -11 -11 -11 -11 -11 -11 -11 -11 -12 -12 -12 -12 -12 -12 -12 -12 -12 -12 -13 -13 -13 -13 -13 -14 -14 -14 -14 -14 -14 -13 -13 -13 -13 -13
-11 -11 -10 -10 -10 -10 -9 -9 -10 -11 -10 -11 -11 -11 -11 -11 -11 -11 -11 -11 -11 -11 -11 -12 -12 -12 -12 -12 -12 -12 -12 -12 -12 -13 -13 -12 -13 -13 -14 -14 -14 -14 -14 -14 -13 -13 -13 -13 -13
-11 -11 -10 -9 -9 -9 -9 -9 -10 -11 -11 -11 -12 -11 -11 -11 -12 -11 -11 -11 -11 -11 -11 -12 -12 -12 -13 -13 -12 -12 -12 -12 -12 -13 -13 -12 -13 -13 -13 -14 -14 -13 -13 -13 -13 -13 -13 -13 -13

GFSSGP_500_temp_027.txt.gz
Temp
-7 -7 -6 -7 -7 -7 -8 -8 -8 -8 -8 -8 -8 -9 -9 -10 -9 -9 -9 -9 -9 -10 -10 -9 -9 -9 -9 -8 -8 -8 -8 -7 -7 -8 -9 -8 -8 -9 -8 -8 -8 -8 -7 -7 -7 -8 -7 -7 -7
-7 -7 -7 -7 -7 -7 -8 -8 -8 -8 -9 -9 -9 -9 -9 -10 -10 -10 -9 -10 -10 -10 -10 -9 -9 -8 -8 -8 -8 -8 -8 -9 -9 -9 -9 -9 -9 -9 -9 -9 -9 -8 -8 -8 -7 -8 -8 -7 -7
-7 -7 -7 -7 -7 -8 -8 -8 -8 -8 -8 -9 -9 -10 -10 -10 -10 -10 -10 -10 -10 -10 -10 -9 -8 -8 -8 -8 -9 -8 -9 -10 -10 -10 -10 -10 -9 -9 -9 -9 -9 -9 -9 -9 -8 -7 -8 -7 -7
-8 -8 -8 -8 -8 -8 -8 -9 -8 -8 -9 -9 -9 -10 -9 -9 -10 -10 -10 -10 -10 -10 -10 -9 -9 -9 -8 -9 -9 -9 -10 -10 -10 -10 -10 -9 -9 -9 -10 -10 -10 -9 -9 -9 -9 -8 -9 -8 -8
-8 -9 -8 -8 -8 -8 -8 -9 -9 -9 -9 -9 -9 -10 -10 -10 -10 -11 -10 -10 -11 -10 -10 -10 -10 -9 -9 -10 -10 -10 -10 -10 -10 -10 -10 -9 -9 -9 -9 -9 -9 -9 -9 -9 -9 -9 -9 -8 -8
-9 -9 -9 -8 -8 -9 -10 -10 -10 -10 -10 -10 -10 -10 -10 -10 -11 -11 -11 -11 -11 -11 -11 -11 -11 -10 -11 -11 -11 -11 -10 -10 -10 -10 -11 -10 -10 -10 -10 -10 -9 -9 -9 -9 -9 -9 -9 -8 -8
-10 -9 -9 -9 -8 -9 -9 -10 -10 -10 -10 -10 -10 -10 -10 -10 -11 -11 -11 -11 -12 -12 -12 -12 -12 -11 -11 -11 -11 -11 -11 -11 -11 -11 -11 -11 -11 -10 -10 -10 -10 -10 -9 -9 -10 -9 -9 -9 -9
-10 -10 -10 -9 -9 -9 -9 -10 -11 -11 -11 -11 -10 -10 -11 -11 -11 -11 -11 -12 -12 -12 -13 -12 -12 -12 -12 -12 -12 -12 -12 -12 -12 -11 -11 -11 -11 -11 -11 -11 -10 -11 -10 -10 -10 -10 -10 -10 -10
-11 -10 -10 -9 -9 -10 -10 -11 -11 -11 -11 -11 -10 -11 -11 -11 -11 -11 -11 -12 -12 -13 -13 -13 -13 -12 -12 -12 -12 -12 -12 -12 -12 -12 -11 -11 -11 -11 -11 -11 -11 -11 -11 -11 -11 -11 -11 -11 -11
-11 -10 -10 -9 -10 -10 -10 -11 -10 -10 -11 -11 -11 -11 -11 -12 -12 -12 -11 -12 -12 -12 -13 -13 -13 -12 -12 -12 -13 -12 -12 -12 -12 -12 -12 -12 -12 -11 -11 -12 -12 -12 -12 -12 -11 -11 -11 -11 -11
-10 -9 -10 -10 -11 -11 -11 -11 -11 -10 -10 -11 -11 -11 -12 -12 -12 -11 -12 -13 -12 -12 -13 -13 -13 -13 -13 -13 -12 -12 -12 -12 -12 -12 -12 -12 -12 -12 -11 -12 -12 -12 -11 -11 -11 -11 -11 -11 -11
-11 -10 -11 -11 -11 -11 -11 -10 -10 -11 -11 -10 -11 -11 -11 -12 -12 -12 -11 -12 -12 -12 -13 -13 -13 -13 -13 -13 -12 -12 -13 -12 -12 -12 -12 -12 -12 -12 -12 -12 -12 -12 -12 -11 -11 -11 -11 -11 -11
-11 -11 -11 -11 -11 -11 -11 -10 -10 -10 -11 -12 -12 -11 -12 -12 -12 -11 -12 -12 -12 -12 -12 -13 -13 -13 -13 -13 -13 -13 -12 -12 -12 -12 -12 -12 -12 -12 -12 -12 -12 -12 -12 -12 -12 -11 -12 -11 -11
-11 -10 -11 -11 -11 -11 -11 -11 -10 -10 -12 -12 -12 -12 -12 -11 -11 -11 -11 -12 -12 -11 -12 -13 -13 -13 -13 -13 -13 -13 -13 -13 -12 -12 -12 -12 -12 -12 -12 -12 -12 -12 -12 -12 -12 -12 -12 -12 -12
-11 -11 -11 -11 -11 -10 -11 -9 -11 -11 -11 -12 -11 -11 -11 -10 -11 -11 -11 -12 -12 -11 -12 -12 -13 -13 -13 -13 -13 -13 -13 -13 -12 -13 -12 -12 -12 -12 -12 -12 -12 -12 -12 -12 -12 -12 -12 -13 -13
-11 -11 -11 -11 -11 -10 -12 -8 -11 -11 -11 -12 -11 -11 -9 -10 -10 -10 -12 -11 -11 -11 -12 -12 -13 -13 -14 -13 -13 -13 -13 -12 -13 -13 -13 -13 -13 -12 -12 -13 -13 -13 -13 -13 -13 -13 -13 -13 -13
-11 -11 -10 -10 -10 -12 -11 -10 -11 -12 -12 -11 -11 -10 -10 -10 -10 -11 -11 -11 -11 -11 -12 -13 -13 -13 -13 -14 -13 -13 -13 -13 -13 -13 -13 -13 -13 -13 -13 -13 -13 -13 -13 -13 -13 -13 -14 -14 -14
-8 -9 -9 -10 -10 -12 -11 -10 -11 -13 -12 -12 -11 -10 -10 -10 -10 -11 -11 -11 -11 -11 -13 -13 -13 -13 -13 -13 -13 -13 -13 -13 -13 -13 -13 -13 -13 -13 -13 -13 -13 -13 -13 -13 -14 -14 -14 -14 -14
-11 -11 -11 -11 -11 -12 -11 -11 -11 -13 -13 -11 -11 -10 -10 -10 -11 -11 -11 -11 -11 -12 -13 -13 -13 -13 -13 -13 -13 -13 -13 -13 -13 -12 -12 -13 -13 -13 -13 -13 -13 -13 -13 -14 -14 -15 -15 -15 -15
-12 -11 -10 -11 -12 -12 -12 -11 -12 -13 -12 -11 -10 -10 -10 -10 -11 -11 -11 -10 -11 -12 -12 -13 -13 -13 -13 -13 -13 -13 -13 -12 -12 -12 -12 -13 -13 -13 -13 -13 -13 -14 -14 -14 -15 -15 -15 -15 -16
-11 -11 -11 -11 -12 -13 -12 -11 -12 -13 -11 -11 -10 -10 -11 -11 -11 -11 -10 -11 -11 -11 -12 -12 -12 -12 -12 -13 -12 -12 -12 -12 -12 -12 -13 -13 -13 -13 -13 -13 -14 -14 -14 -15 -15 -15 -15 -15 -15
-11 -11 -12 -13 -13 -12 -13 -10 -11 -11 -11 -10 -10 -10 -11 -11 -11 -11 -11 -11 -11 -11 -11 -11 -12 -12 -12 -12 -12 -12 -12 -12 -12 -12 -12 -13 -13 -13 -13 -14 -14 -15 -15 -15 -15 -15 -15 -15 -15
-11 -13 -13 -13 -13 -12 -12 -11 -8 -11 -10 -10 -10 -11 -11 -11 -10 -11 -11 -12 -11 -11 -11 -11 -11 -12 -12 -12 -12 -12 -12 -12 -12 -12 -13 -13 -13 -13 -14 -14 -14 -15 -15 -15 -15 -15 -14 -15 -15
-13 -13 -12 -12 -12 -12 -10 -12 -9 -10 -11 -11 -11 -12 -11 -11 -11 -11 -12 -12 -11 -11 -11 -11 -11 -11 -12 -12 -12 -12 -12 -12 -12 -13 -13 -13 -13 -13 -14 -14 -15 -15 -15 -15 -15 -15 -14 -14 -14
-13 -13 -11 -12 -13 -9 -10 -11 -9 -10 -11 -10 -11 -11 -11 -11 -12 -11 -12 -11 -11 -10 -11 -11 -11 -11 -11 -12 -12 -12 -12 -12 -12 -13 -13 -13 -13 -13 -14 -14 -15 -15 -14 -14 -14 -14 -14 -14 -14
-12 -12 -11 -11 -11 -10 -11 -9 -8 -10 -11 -11 -11 -10 -11 -11 -11 -11 -11 -11 -11 -11 -11 -11 -11 -11 -12 -12 -12 -12 -12 -12 -13 -13 -13 -13 -13 -13 -14 -14 -14 -14 -14 -14 -14 -14 -14 -14 -14
-12 -11 -12 -12 -11 -11 -10 -9 -9 -10 -11 -10 -11 -11 -11 -12 -11 -11 -11 -11 -11 -11 -11 -11 -11 -11 -12 -12 -12 -12 -12 -12 -13 -12 -13 -13 -13 -14 -14 -14 -14 -14 -14 -14 -14 -14 -13 -13 -14
-11 -13 -12 -11 -10 -10 -9 -9 -9 -10 -10 -10 -10 -11 -12 -11 -11 -11 -11 -11 -11 -11 -11 -11 -11 -12 -12 -12 -12 -12 -12 -12 -12 -12 -12 -12 -13 -14 -14 -14 -14 -14 -14 -14 -14 -13 -13 -13 -13
-12 -11 -11 -12 -11 -10 -9 -8 -10 -10 -10 -11 -11 -11 -11 -11 -11 -11 -11 -11 -11 -11 -11 -11 -12 -12 -12 -12 -13 -12 -12 -12 -12 -12 -13 -13 -13 -13 -14 -14 -14 -14 -14 -13 -13 -13 -13 -13 -13
-12 -12 -11 -11 -10 -10 -10 -9 -10 -11 -11 -11 -11 -11 -11 -11 -10 -11 -11 -11 -11 -11 -11 -11 -12 -12 -12 -12 -12 -12 -12 -12 -12 -12 -13 -13 -13 -13 -13 -14 -13 -13 -13 -13 -13 -13 -13 -13 -13

GFSSGP_500_temp_030.txt.gz
Temp
-7 -7 -7 -7 -7 -7 -7 -7 -7 -7 -8 -8 -8 -8 -8 -8 -9 -9 -9 -9 -9 -9 -10 -10 -10 -9 -9 -8 -8 -8 -8 -8 -8 -8 -8 -8 -8 -8 -8 -9 -9 -9 -8 -8 -8 -8 -8 -7 -7
-7 -7 -7 -7 -7 -7 -8 -8 -8 -8 -8 -7 -7 -8 -8 -9 -9 -9 -9 -9 -9 -10 -10 -10 -10 -9 -9 -8 -8 -8 -8 -9 -9 -9 -9 -9 -9 -9 -9 -9 -9 -9 -9 -9 -8 -8 -9 -8 -8
-8 -8 -7 -7 -7 -8 -10 -8 -8 -8 -8 -8 -8 -8 -9 -9 -9 -9 -9 -9 -10 -10 -10 -11 -10 -9 -9 -9 -9 -9 -9 -10 -10 -10 -10 -9 -9 -9 -10 -10 -9 -9 -9 -9 -9 -9 -9 -9 -8
-8 -8 -8 -8 -8 -8 -8 -8 -8 -9 -8 -8 -8 -9 -9 -10 -9 -9 -9 -9 -10 -10 -11 -11 -10 -10 -9 -9 -10 -10 -10 -10 -10 -10 -10 -10 -10 -10 -10 -9 -10 -10 -10 -10 -9 -9 -9 -9 -9
-9 -8 -8 -8 -8 -8 -9 -8 -8 -9 -8 -8 -9 -9 -9 -10 -9 -10 -10 -10 -10 -11 -11 -11 -10 -10 -9 -9 -10 -10 -11 -11 -11 -11 -10 -10 -10 -10 -10 -10 -10 -10 -10 -10 -10 -9 -9 -9 -9
-9 -9 -9 -9 -8 -9 -9 -9 -9 -10 -9 -9 -9 -9 -10 -10 -10 -10 -10 -10 -11 -11 -11 -11 -10 -10 -10 -10 -10 -10 -11 -11 -11 -11 -11 -11 -11 -10 -10 -10 -10 -10 -10 -10 -9 -9 -9 -9 -9
-10 -9 -9 -9 -9 -9 -10 -10 -10 -10 -9 -9 -10 -10 -10 -10 -10 -10 -10 -10 -11 -11 -11 -12 -11 -11 -11 -10 -10 -11 -11 -11 -11 -11 -11 -11 -11 -11 -11 -11 -11 -10 -10 -10 -10 -10 -9 -9 -9
-10 -10 -10 -10 -10 -9 -10 -10 -10 -10 -10 -9 -10 -11 -11 -11 -11 -11 -11 -11 -11 -11 -12 -12 -12 -12 -11 -11 -11 -11 -12 -12 -12 -12 -12 -12 -11 -11 -11 -11 -11 -11 -11 -10 -10 -10 -10 -10 -10
-11 -10 -10 -10 -10 -10 -10 -10 -10 -10 -10 -10 -11 -10 -11 -11 -12 -11 -11 -11 -11 -12 -12 -12 -13 -12 -12 -12 -11 -11 -12 -12 -12 -12 -12 -12 -11 -11 -11 -11 -11 -12 -11 -11 -11 -11 -11 -11 -11
-10 -10 -10 -10 -10 -11 -11 -10 -11 -10 -10 -10 -11 -11 -11 -11 -12 -12 -12 -12 -11 -12 -12 -12 -12 -12 -13 -12 -11 -11 -12 -12 -12 -12 -12 -12 -12 -11 -11 -12 -12 -12 -12 -12 -12 -12 -11 -11 -11
-10 -10 -10 -10 -11 -11 -10 -10 -11 -10 -10 -10 -11 -11 -12 -12 -12 -12 -12 -12 -12 -12 -12 -12 -12 -12 -12 -13 -12 -12 -12 -12 -12 -12 -12 -12 -12 -11 -12 -12 -12 -12 -12 -12 -12 -12 -12 -12 -11
-10 -10 -11 -11 -11 -11 -11 -11 -11 -10 -9 -10 -11 -11 -11 -11 -12 -12 -12 -12 -12 -12 -12 -13 -12 -12 -12 -13 -13 -13 -13 -13 -12 -12 -13 -13 -12 -12 -12 -12 -12 -12 -12 -12 -12 -12 -12 -11 -11
-11 -11 -11 -11 -11 -11 -11 -11 -10 -9 -9 -10 -11 -11 -11 -11 -11 -12 -11 -11 -11 -12 -12 -12 -13 -12 -12 -13 -13 -13 -13 -13 -13 -13 -13 -13 -12 -12 -12 -12 -12 -12 -12 -11 -11 -11 -12 -11 -11
-11 -11 -11 -11 -10 -11 -11 -11 -10 -9 -10 -10 -11 -11 -11 -11 -11 -10 -9 -10 -11 -12 -12 -12 -12 -12 -12 -13 -13 -13 -14 -14 -13 -13 -13 -12 -12 -12 -12 -12 -12 -12 -12 -12 -12 -12 -12 -12 -12
-11 -11 -12 -10 -11 -11 -11 -10 -9 -10 -10 -11 -10 -11 -11 -11 -10 -9 -10 -10 -11 -12 -12 -13 -12 -12 -12 -13 -13 -13 -14 -14 -14 -13 -13 -13 -12 -12 -12 -12 -12 -12 -12 -12 -12 -12 -12 -12 -12
-10 -11 -11 -11 -10 -10 -11 -8 -10 -11 -10 -11 -11 -12 -11 -10 -10 -10 -10 -10 -11 -11 -12 -12 -12 -12 -13 -13 -13 -13 -13 -14 -13 -13 -13 -13 -12 -12 -12 -12 -12 -12 -12 -12 -12 -13 -12 -13 -12
-10 -9 -9 -11 -13 -12 -11 -9 -10 -11 -10 -11 -11 -12 -10 -10 -10 -10 -9 -10 -10 -11 -11 -12 -12 -12 -13 -13 -13 -13 -13 -14 -13 -13 -13 -12 -12 -12 -12 -12 -12 -13 -13 -13 -13 -13 -13 -13 -13
-9 -9 -10 -11 -13 -11 -11 -9 -11 -11 -10 -11 -11 -11 -10 -10 -11 -10 -10 -11 -11 -11 -11 -11 -12 -12 -13 -13 -13 -13 -13 -13 -13 -13 -13 -12 -12 -12 -12 -13 -13 -13 -13 -13 -13 -13 -13 -13 -13
-11 -11 -11 -10 -12 -12 -11 -10 -10 -11 -10 -11 -12 -11 -10 -10 -10 -10 -10 -11 -11 -11 -11 -11 -11 -13 -13 -13 -13 -13 -13 -13 -13 -13 -12 -12 -12 -12 -13 -13 -13 -13 -13 -13 -13 -13 -13 -14 -14
-11 -11 -11 -12 -12 -12 -11 -11 -11 -12 -11 -11 -11 -11 -10 -10 -10 -10 -10 -10 -11 -11 -11 -11 -11 -12 -12 -12 -13 -13 -13 -13 -13 -12 -12 -12 -12 -12 -13 -13 -13 -13 -13 -14 -14 -14 -14 -14 -14
-10 -11 -12 -12 -13 -13 -12 -11 -10 -11 -11 -10 -11 -11 -11 -10 -10 -10 -11 -11 -11 -11 -11 -11 -11 -11 -12 -12 -12 -13 -12 -12 -12 -12 -12 -12 -12 -13 -13 -13 -13 -13 -14 -14 -14 -14 -14 -15 -15
-10 -11 -12 -13 -13 -12 -13 -11 -9 -10 -10 -10 -11 -11 -11 -10 -11 -11 -11 -11 -11 -11 -11 -11 -11 -11 -11 -12 -12 -12 -12 -12 -12 -12 -12 -12 -12 -12 -13 -14 -13 -13 -14 -14 -14 -14 -15 -15 -15
-9 -12 -12 -12 -12 -12 -11 -11 -8 -10 -9 -11 -11 -10 -10 -11 -11 -11 -10 -10 -11 -11 -11 -11 -11 -11 -11 -12 -12 -12 -12 -12 -12 -12 -12 -13 -13 -13 -13 -13 -13 -14 -14 -14 -14 -14 -14 -15 -15
-12 -12 -12 -12 -12 -11 -10 -11 -9 -8 -11 -11 -11 -11 -10 -11 -11 -11 -10 -11 -11 -11 -11 -10 -11 -11 -11 -11 -11 -11 -11 -12 -12 -12 -13 -13 -13 -13 -13 -13 -14 -14 -14 -14 -14 -14 -15 -15 -15
-12 -12 -12 -11 -11 -10 -10 -10 -8 -10 -10 -11 -11 -11 -10 -10 -11 -11 -11 -11 -11 -11 -11 -11 -11 -11 -11 -11 -11 -11 -12 -12 -12 -12 -13 -13 -13 -13 -13 -14 -14 -14 -14 -14 -14 -14 -14 -14 -14
-10 -10 -10 -10 -10 -10 -10 -9 -8 -10 -10 -10 -10 -10 -10 -11 -11 -11 -11 -11 -11 -11 -11 -11 -11 -11 -11 -11 -11 -11 -12 -12 -12 -12 -12 -12 -13 -13 -14 -14 -14 -14 -14 -14 -14 -14 -14 -14 -14
-10 -10 -11 -12 -11 -12 -13 -9 -10 -10 -10 -10 -10 -10 -10 -11 -11 -11 -11 -11 -11 -11 -11 -11 -11 -11 -11 -11 -12 -12 -12 -12 -12 -12 -12 -12 -13 -13 -14 -14 -14 -14 -14 -14 -14 -14 -14 -14 -13
-11 -12 -11 -11 -11 -12 -12 -11 -10 -10 -10 -10 -10 -10 -11 -11 -11 -11 -11 -11 -11 -11 -11 -11 -11 -11 -11 -12 -12 -12 -12 -12 -12 -12 -12 -12 -13 -13 -14 -14 -13 -13 -14 -14 -14 -13 -13 -13 -13
-11 -11 -11 -11 -12 -12 -12 -10 -10 -11 -10 -10 -10 -10 -11 -11 -11 -11 -11 -11 -10 -11 -11 -11 -11 -11 -12 -12 -12 -12 -12 -12 -12 -12 -12 -12 -13 -13 -13 -13 -13 -13 -13 -13 -13 -13 -13 -13 -13
-13 -11 -11 -10 -11 -13 -14 -10 -10 -10 -10 -10 -10 -10 -11 -11 -11 -12 -11 -10 -11 -11 -11 -11 -11 -11 -12 -12 -12 -12 -12 -12 -12 -12 -12 -12 -13 -13 -13 -13 -13 -13 -13 -13 -13 -13 -13 -13 -14

GFSSGP_500_temp_033.txt.gz
Temp
-7 -6 -7 -7 -7 -7 -7 -8 -9 -8 -8 -7 -7 -7 -8 -9 -9 -10 -8 -9 -8 -8 -9 -9 -9 -8 -8 -8 -8 -8 -8 -8 -8 -8 -8 -8 -9 -9 -9 -8 -8 -8 -8 -8 -8 -8 -8 -8 -8
-7 -7 -7 -7 -7 -7 -8 -8 -9 -9 -9 -8 -7 -7 -8 -9 -8 -9 -8 -8 -9 -9 -9 -9 -10 -9 -9 -9 -8 -8 -8 -8 -8 -8 -9 -9 -9 -9 -9 -9 -9 -9 -9 -9 -9 -9 -8 -8 -8
-8 -8 -8 -7 -7 -8 -8 -8 -8 -9 -8 -8 -8 -7 -8 -9 -8 -9 -9 -9 -9 -10 -10 -10 -10 -10 -10 -9 -9 -8 -8 -8 -9 -9 -9 -9 -10 -10 -10 -10 -10 -10 -9 -9 -9 -9 -9 -9 -9
-8 -8 -8 -8 -8 -9 -8 -8 -9 -9 -10 -8 -8 -8 -9 -8 -9 -9 -9 -9 -10 -10 -10 -10 -11 -10 -10 -9 -9 -9 -9 -9 -9 -9 -9 -9 -10 -10 -10 -10 -10 -10 -10 -10 -9 -9 -9 -9 -9
-9 -9 -8 -8 -8 -9 -9 -8 -9 -10 -10 -10 -10 -9 -10 -9 -9 -9 -9 -10 -10 -10 -10 -10 -11 -10 -10 -9 -9 -9 -9 -9 -10 -9 -9 -10 -10 -10 -10 -10 -10 -10 -10 -10 -10 -10 -9 -9 -9
-9 -9 -9 -9 -10 -10 -10 -10 -9 -10 -11 -10 -10 -9 -10 -10 -9 -9 -9 -10 -10 -10 -10 -10 -11 -10 -10 -10 -9 -9 -10 -10 -10 -10 -10 -10 -10 -11 -11 -11 -11 -11 -11 -10 -10 -10 -9 -9 -9
-9 -9 -9 -9 -10 -10 -10 -10 -10 -11 -10 -10 -11 -9 -10 -11 -10 -10 -10 -10 -10 -10 -10 -10 -11 -10 -10 -10 -10 -10 -10 -10 -10 -11 -11 -11 -11 -11 -11 -11 -11 -11 -11 -10 -10 -10 -10 -10 -9
-10 -10 -9 -9 -9 -9 -10 -10 -10 -11 -11 -10 -10 -10 -11 -10 -10 -11 -10 -10 -10 -10 -11 -11 -11 -11 -11 -11 -10 -10 -10 -10 -10 -11 -11 -11 -11 -11 -11 -11 -11 -11 -11 -11 -11 -10 -10 -10 -10
-11 -10 -9 -9 -9 -10 -10 -11 -11 -11 -10 -10 -10 -10 -11 -10 -10 -10 -11 -11 -11 -11 -11 -11 -11 -11 -11 -11 -11 -11 -11 -10 -11 -12 -12 -12 -12 -11 -11 -11 -12 -11 -11 -11 -11 -11 -11 -11 -10
-10 -10 -10 -9 -10 -10 -10 -10 -11 -11 -11 -10 -10 -10 -11 -12 -11 -11 -11 -11 -11 -12 -12 -12 -12 -12 -12 -11 -11 -11 -11 -12 -12 -12 -12 -12 -12 -12 -12 -12 -11 -11 -12 -12 -11 -11 -11 -11 -11
-11 -10 -11 -11 -11 -11 -11 -11 -11 -11 -11 -11 -11 -10 -11 -11 -11 -11 -10 -11 -12 -12 -12 -11 -12 -12 -12 -11 -11 -12 -12 -12 -12 -13 -13 -12 -12 -12 -12 -12 -12 -12 -12 -12 -12 -12 -12 -11 -11
-11 -10 -10 -10 -11 -11 -11 -11 -11 -11 -11 -11 -9 -10 -11 -11 -11 -10 -11 -12 -12 -12 -13 -12 -12 -12 -12 -12 -11 -12 -12 -12 -13 -13 -13 -13 -13 -12 -12 -12 -12 -12 -12 -12 -12 -12 -12 -12 -11
-11 -11 -11 -10 -11 -11 -12 -11 -11 -10 -10 -10 -10 -10 -11 -11 -11 -10 -10 -11 -10 -11 -11 -11 -12 -12 -12 -12 -12 -12 -12 -12 -13 -13 -13 -13 -13 -12 -12 -12 -12 -12 -12 -12 -12 -12 -12 -11 -11
-11 -11 -11 -11 -11 -11 -11 -10 -10 -10 -10 -10 -10 -10 -11 -11 -11 -10 -10 -10 -10 -10 -10 -11 -11 -12 -12 -12 -13 -12 -13 -13 -13 -13 -13 -13 -13 -12 -13 -12 -12 -12 -12 -12 -12 -12 -12 -12 -11
-12 -12 -12 -11 -12 -12 -10 -9 -10 -10 -10 -10 -10 -10 -11 -10 -11 -10 -10 -9 -9 -9 -9 -10 -11 -11 -12 -13 -13 -12 -13 -13 -13 -13 -13 -13 -13 -13 -12 -12 -12 -12 -12 -12 -12 -12 -12 -12 -12
-11 -11 -9 -9 -10 -11 -13 -7 -9 -10 -10 -10 -11 -10 -10 -10 -11 -10 -10 -9 -10 -9 -10 -10 -11 -11 -12 -12 -12 -13 -13 -13 -13 -13 -13 -13 -13 -12 -12 -12 -12 -12 -12 -12 -12 -12 -12 -12 -12
-10 -9 -8 -10 -12 -13 -13 -8 -10 -10 -10 -10 -11 -11 -10 -10 -10 -10 -10 -10 -10 -10 -10 -11 -11 -11 -12 -12 -13 -13 -13 -13 -13 -13 -13 -12 -12 -12 -12 -12 -12 -12 -13 -13 -13 -13 -12 -13 -12
-8 -9 -10 -9 -10 -13 -13 -11 -12 -11 -10 -11 -12 -11 -10 -10 -10 -10 -10 -10 -10 -10 -11 -11 -11 -11 -12 -12 -13 -13 -13 -14 -13 -13 -13 -12 -12 -12 -12 -12 -12 -13 -13 -13 -13 -13 -13 -13 -13
-10 -11 -10 -10 -10 -13 -11 -11 -12 -11 -11 -10 -11 -10 -10 -10 -11 -10 -10 -10 -10 -10 -11 -11 -11 -12 -12 -12 -13 -12 -13 -13 -12 -12 -12 -12 -12 -12 -12 -12 -13 -13 -13 -13 -12 -12 -13 -13 -13
-11 -11 -9 -10 -11 -13 -13 -12 -13 -12 -9 -10 -10 -10 -10 -10 -10 -10 -10 -10 -10 -10 -11 -11 -11 -12 -12 -12 -12 -12 -12 -12 -12 -12 -12 -12 -12 -12 -12 -13 -12 -13 -13 -13 -13 -13 -13 -13 -13
-10 -10 -9 -10 -10 -12 -13 -13 -9 -9 -10 -10 -10 -10 -10 -10 -10 -10 -10 -10 -11 -11 -11 -11 -12 -11 -11 -11 -11 -12 -12 -12 -12 -12 -12 -12 -12 -12 -13 -13 -13 -13 -13 -13 -13 -13 -13 -13 -14
-9 -10 -10 -10 -11 -11 -13 -11 -8 -10 -11 -10 -9 -10 -11 -10 -10 -11 -10 -10 -11 -11 -11 -11 -11 -11 -11 -11 -11 -11 -11 -11 -12 -12 -12 -12 -13 -13 -13 -13 -13 -13 -13 -13 -13 -14 -14 -14 -14
-8 -12 -11 -11 -11 -11 -10 -12 -7 -10 -10 -9 -11 -11 -10 -9 -11 -11 -10 -10 -11 -11 -11 -11 -11 -11 -11 -11 -11 -11 -11 -11 -11 -11 -12 -12 -13 -13 -13 -13 -13 -13 -14 -13 -14 -14 -14 -14 -14
-11 -12 -12 -13 -11 -11 -9 -12 -7 -9 -9 -10 -11 -10 -9 -11 -11 -10 -10 -11 -11 -11 -11 -11 -11 -11 -11 -11 -11 -11 -11 -11 -11 -12 -12 -12 -13 -13 -13 -13 -13 -14 -14 -14 -14 -14 -14 -14 -14
-12 -12 -13 -13 -10 -7 -10 -13 -7 -8 -9 -10 -10 -9 -10 -11 -10 -10 -10 -10 -11 -11 -11 -11 -11 -11 -11 -11 -11 -11 -11 -11 -11 -12 -12 -12 -12 -13 -13 -13 -14 -14 -13 -13 -13 -14 -14 -14 -14
-12 -12 -10 -8 -9 -9 -11 -11 -8 -9 -9 -9 -10 -10 -11 -10 -10 -10 -11 -11 -11 -11 -11 -11 -11 -11 -11 -11 -11 -11 -11 -11 -12 -12 -12 -12 -12 -13 -13 -13 -13 -13 -13 -13 -13 -13 -13 -14 -14
-11 -14 -8 -12 -12 -12 -11 -11 -11 -10 -9 -10 -10 -10 -10 -10 -10 -11 -11 -11 -11 -11 -11 -11 -11 -11 -11 -11 -11 -11 -11 -11 -11 -12 -12 -12 -13 -13 -13 -13 -13 -13 -13 -13 -13 -13 -13 -14 -13
-14 -10 -14 -12 -11 -12 -11 -11 -11 -10 -11 -10 -10 -10 -10 -10 -11 -11 -11 -11 -11 -11 -11 -11 -11 -11 -11 -11 -11 -11 -11 -11 -11 -12 -12 -12 -13 -12 -12 -12 -13 -13 -13 -13 -13 -13 -13 -13 -13
-13 -15 -12 -11 -12 -12 -12 -11 -12 -10 -11 -10 -10 -10 -10 -10 -10 -11 -11 -11 -11 -11 -11 -11 -11 -11 -11 -11 -11 -11 -11 -11 -12 -11 -12 -12 -12 -12 -12 -12 -13 -13 -13 -13 -13 -13 -13 -13 -13
-14 -15 -13 -10 -10 -13 -12 -11 -11 -11 -11 -10 -10 -9 -10 -10 -10 -11 -11 -11 -11 -11 -11 -11 -11 -11 -11 -11 -11 -11 -11 -11 -11 -11 -12 -12 -12 -12 -12 -12 -12 -13 -13 -13 -13 -13 -13 -13 -13

GFSSGP_500_temp_036.txt.gz
Temp
-7 -7 -7 -7 -6 -6 -6 -7 -8 -8 -8 -7 -6 -6 -7 -8 -8 -8 -7 -8 -8 -8 -9 -9 -8 -7 -7 -7 -8 -8 -8 -8 -8 -8 -7 -7 -7 -7 -8 -8 -9 -9 -9 -9 -8 -8 -8 -8 -8
-7 -7 -7 -7 -7 -6 -8 -8 -8 -8 -7 -8 -7 -7 -8 -9 -7 -8 -8 -8 -7 -9 -9 -9 -8 -7 -7 -7 -8 -8 -8 -8 -8 -8 -7 -7 -7 -8 -8 -8 -9 -10 -10 -10 -9 -9 -9 -9 -8
-7 -7 -7 -7 -7 -7 -7 -8 -7 -8 -8 -8 -8 -8 -8 -10 -7 -8 -9 -9 -8 -9 -9 -10 -9 -8 -8 -8 -8 -8 -9 -8 -8 -8 -8 -8 -8 -8 -8 -8 -8 -9 -9 -10 -10 -10 -9 -9 -9
-8 -8 -8 -7 -7 -7 -8 -8 -7 -8 -9 -9 -8 -8 -10 -9 -8 -8 -9 -9 -8 -9 -9 -9 -9 -9 -8 -9 -9 -8 -8 -9 -8 -8 -8 -8 -8 -8 -9 -9 -9 -9 -9 -9 -10 -10 -10 -9 -9
-8 -8 -8 -7 -7 -7 -9 -9 -8 -8 -9 -9 -10 -8 -9 -10 -10 -8 -9 -9 -9 -8 -9 -9 -9 -9 -8 -8 -9 -9 -9 -9 -9 -8 -8 -8 -9 -9 -10 -10 -10 -10 -10 -10 -10 -10 -10 -10 -9
-9 -9 -8 -8 -8 -8 -9 -9 -9 -9 -9 -10 -10 -10 -10 -10 -10 -9 -9 -9 -9 -9 -8 -9 -9 -9 -9 -8 -9 -9 -9 -9 -9 -9 -9 -9 -10 -10 -10 -11 -11 -11 -10 -10 -10 -10 -10 -10 -10
-10 -10 -9 -9 -8 -10 -9 -9 -9 -10 -10 -10 -9 -10 -9 -9 -10 -10 -10 -10 -9 -9 -9 -9 -9 -10 -9 -10 -9 -9 -10 -10 -10 -10 -10 -10 -10 -10 -11 -11 -11 -11 -11 -11 -11 -10 -10 -10 -10
-10 -10 -9 -9 -8 -9 -10 -10 -10 -10 -10 -10 -9 -9 -9 -10 -10 -10 -10 -10 -10 -10 -9 -7 -9 -10 -10 -11 -11 -11 -10 -10 -11 -11 -11 -11 -11 -11 -11 -12 -11 -11 -11 -11 -11 -11 -11 -11 -10
-11 -10 -9 -9 -9 -9 -10 -10 -10 -9 -10 -10 -10 -10 -9 -10 -11 -10 -10 -10 -10 -11 -11 -10 -8 -9 -10 -11 -11 -11 -11 -11 -12 -11 -11 -12 -11 -12 -12 -12 -12 -12 -11 -11 -11 -11 -11 -11 -11
-10 -10 -9 -9 -9 -10 -10 -10 -10 -10 -10 -10 -10 -10 -10 -11 -11 -11 -11 -11 -10 -10 -11 -12 -12 -7 -10 -11 -11 -11 -11 -12 -12 -12 -12 -12 -12 -12 -12 -11 -11 -12 -11 -11 -11 -11 -11 -11 -11
-10 -9 -9 -9 -10 -10 -10 -10 -10 -10 -10 -10 -10 -10 -10 -10 -11 -10 -11 -11 -10 -11 -11 -11 -12 -10 -7 -11 -11 -12 -12 -12 -12 -13 -12 -13 -13 -12 -12 -12 -11 -11 -12 -12 -12 -11 -11 -11 -12
-11 -9 -10 -10 -10 -10 -10 -10 -10 -10 -10 -10 -10 -11 -11 -10 -10 -10 -10 -11 -11 -10 -10 -10 -11 -11 -9 -11 -10 -11 -12 -13 -13 -13 -13 -13 -13 -12 -12 -12 -12 -12 -12 -12 -12 -11 -12 -11 -11
-11 -10 -11 -11 -11 -10 -10 -10 -10 -10 -10 -10 -10 -10 -10 -10 -10 -10 -11 -11 -10 -9 -10 -10 -10 -9 -10 -12 -11 -11 -12 -13 -13 -12 -13 -13 -13 -12 -12 -12 -12 -12 -12 -12 -12 -12 -12 -11 -11
-11 -12 -11 -11 -11 -11 -11 -10 -10 -10 -11 -10 -10 -9 -9 -10 -11 -10 -11 -11 -10 -10 -10 -9 -9 -8 -10 -10 -12 -12 -12 -13 -13 -13 -12 -12 -13 -13 -12 -12 -12 -12 -12 -12 -12 -12 -12 -12 -12
-12 -12 -11 -10 -11 -11 -12 -9 -10 -11 -10 -9 -10 -9 -10 -10 -11 -10 -10 -10 -10 -10 -10 -9 -9 -9 -10 -11 -12 -12 -13 -13 -13 -13 -12 -12 -13 -13 -12 -12 -12 -12 -12 -12 -12 -12 -12 -12 -11
-12 -12 -10 -9 -10 -9 -12 -9 -9 -10 -11 -10 -10 -10 -11 -12 -12 -10 -10 -10 -10 -10 -10 -9 -10 -9 -10 -11 -12 -13 -13 -13 -13 -13 -13 -13 -13 -13 -12 -12 -12 -12 -12 -12 -12 -12 -12 -12 -12
-11 -10 -9 -9 -9 -11 -12 -10 -9 -11 -11 -10 -11 -11 -11 -11 -11 -10 -11 -10 -10 -9 -10 -10 -10 -9 -11 -11 -12 -13 -13 -13 -14 -13 -13 -13 -13 -13 -12 -12 -12 -12 -12 -12 -12 -12 -12 -12 -12
-9 -9 -8 -9 -9 -10 -12 -11 -9 -11 -12 -12 -12 -10 -10 -11 -11 -10 -10 -10 -10 -9 -10 -10 -10 -10 -11 -12 -12 -13 -13 -13 -13 -13 -13 -12 -12 -12 -12 -12 -12 -12 -12 -12 -12 -12 -12 -12 -12
-10 -9 -10 -10 -10 -10 -11 -10 -9 -11 -12 -11 -11 -10 -10 -10 -10 -10 -10 -11 -9 -9 -10 -10 -10 -11 -11 -12 -12 -12 -12 -13 -12 -12 -12 -12 -12 -12 -12 -12 -12 -12 -12 -12 -12 -13 -12 -12 -12
-10 -10 -10 -10 -10 -10 -13 -12 -9 -11 -10 -11 -11 -9 -8 -10 -11 -12 -10 -10 -9 -10 -10 -10 -10 -11 -12 -12 -12 -12 -12 -11 -11 -11 -12 -12 -12 -12 -12 -12 -12 -12 -12 -12 -13 -13 -13 -13 -13
-10 -10 -9 -10 -11 -10 -12 -10 -10 -9 -10 -12 -10 -9 -10 -10 -10 -10 -10 -9 -10 -10 -10 -10 -10 -11 -12 -12 -12 -12 -11 -11 -11 -11 -11 -12 -12 -12 -12 -12 -13 -13 -13 -13 -13 -13 -13 -13 -13
-10 -9 -10 -10 -10 -10 -12 -12 -8 -8 -9 -10 -9 -10 -10 -10 -10 -9 -10 -8 -10 -11 -10 -10 -11 -11 -11 -12 -12 -11 -11 -11 -11 -11 -11 -12 -12 -12 -12 -13 -13 -13 -13 -13 -13 -13 -14 -14 -14
-9 -13 -11 -11 -11 -12 -12 -12 -5 -9 -9 -9 -10 -10 -10 -10 -10 -10 -10 -9 -11 -11 -10 -11 -11 -11 -12 -12 -11 -11 -11 -11 -11 -11 -12 -12 -12 -12 -12 -12 -13 -13 -13 -13 -13 -14 -14 -14 -14
-10 -12 -12 -12 -12 -14 -8 -11 -6 -8 -9 -9 -10 -10 -10 -10 -10 -11 -9 -11 -11 -11 -11 -11 -11 -12 -12 -11 -11 -11 -11 -11 -11 -12 -12 -12 -12 -12 -13 -13 -13 -13 -13 -13 -14 -13 -14 -13 -14
-12 -11 -12 -13 -12 -9 -10 -10 -7 -8 -9 -10 -10 -9 -9 -10 -12 -11 -10 -11 -11 -11 -11 -11 -11 -12 -11 -11 -11 -11 -11 -11 -12 -12 -12 -12 -12 -13 -13 -13 -13 -13 -13 -13 -13 -13 -14 -14 -14
-11 -12 -11 -10 -9 -8 -10 -8 -8 -10 -10 -9 -9 -8 -9 -10 -10 -10 -11 -11 -11 -11 -11 -11 -12 -11 -11 -11 -11 -11 -11 -11 -12 -11 -12 -12 -12 -12 -12 -13 -13 -13 -13 -13 -13 -13 -13 -13 -14
-10 -16 -9 -13 -12 -13 -11 -11 -9 -10 -10 -9 -9 -9 -10 -9 -9 -11 -10 -11 -11 -11 -11 -12 -12 -11 -11 -11 -11 -11 -11 -12 -12 -11 -12 -12 -12 -12 -12 -12 -12 -12 -13 -13 -13 -13 -13 -13 -13
-14 -11 -14 -13 -13 -13 -11 -11 -11 -11 -11 -10 -9 -10 -10 -9 -10 -10 -11 -11 -11 -11 -11 -12 -11 -11 -11 -11 -11 -11 -11 -11 -11 -11 -11 -12 -12 -12 -12 -12 -12 -12 -13 -13 -13 -13 -13 -13 -13
-13 -14 -14 -13 -13 -12 -11 -11 -11 -11 -11 -9 -10 -10 -10 -10 -10 -10 -11 -11 -11 -11 -11 -11 -11 -11 -11 -11 -11 -11 -11 -11 -11 -11 -11 -12 -11 -11 -11 -12 -12 -12 -12 -12 -13 -13 -13 -13 -13
-17 -16 -15 -13 -11 -13 -13 -11 -11 -11 -11 -10 -10 -10 -9 -10 -10 -10 -10 -11 -11 -11 -11 -10 -11 -11 -11 -11 -11 -11 -11 -11 -11 -11 -11 -12 -11 -11 -12 -12 -12 -12 -12 -12 -13 -12 -12 -13 -12

GFSSGP_500_temp_042.txt.gz
Temp
-6 -6 -6 -6 -6 -6 -7 -7 -7 -6 -7 -6 -7 -7 -8 -8 -8 -8 -8 -8 -8 -7 -7 -7 -7 -7 -7 -7 -7 -8 -8 -8 -8 -8 -8 -8 -8 -8 -8 -8 -8 -8 -9 -9 -9 -8 -8 -8 -8
-6 -6 -6 -6 -6 -7 -7 -7 -6 -7 -7 -7 -7 -8 -7 -6 -7 -7 -7 -7 -7 -7 -7 -7 -8 -7 -7 -7 -7 -7 -8 -8 -8 -8 -8 -8 -8 -8 -8 -8 -8 -8 -9 -9 -9 -9 -9 -8 -9
-7 -7 -7 -7 -6 -7 -7 -7 -8 -7 -8 -8 -7 -7 -7 -7 -7 -7 -7 -7 -7 -7 -7 -7 -8 -8 -8 -8 -8 -8 -8 -8 -8 -8 -8 -8 -8 -8 -8 -8 -7 -8 -8 -9 -10 -10 -10 -10 -9
-7 -7 -7 -7 -7 -7 -7 -7 -9 -8 -8 -7 -7 -7 -7 -8 -7 -8 -8 -7 -7 -7 -8 -8 -8 -8 -8 -8 -8 -7 -8 -9 -9 -9 -9 -9 -8 -9 -9 -8 -8 -9 -9 -10 -10 -10 -11 -11 -11
-7 -7 -7 -7 -7 -7 -8 -8 -8 -8 -7 -8 -8 -8 -8 -9 -8 -9 -8 -8 -8 -8 -8 -7 -8 -8 -8 -8 -8 -8 -8 -9 -9 -10 -9 -9 -9 -9 -9 -10 -10 -10 -10 -11 -11 -11 -11 -11 -11
-7 -7 -7 -7 -8 -8 -9 -8 -8 -8 -8 -8 -7 -8 -8 -9 -9 -9 -9 -9 -8 -8 -8 -8 -8 -9 -8 -8 -8 -9 -9 -9 -10 -10 -10 -10 -10 -10 -10 -11 -11 -11 -11 -11 -11 -11 -11 -11 -11
-8 -7 -7 -8 -8 -8 -10 -9 -8 -8 -8 -8 -9 -9 -10 -10 -9 -9 -9 -8 -6 -7 -8 -8 -8 -9 -8 -8 -8 -9 -9 -10 -10 -10 -11 -11 -11 -11 -11 -11 -11 -11 -11 -11 -11 -11 -11 -11 -11
-8 -7 -7 -7 -8 -8 -10 -9 -9 -9 -10 -10 -10 -9 -10 -10 -9 -8 -8 -8 -8 -7 -8 -8 -9 -10 -10 -9 -9 -9 -10 -10 -11 -11 -11 -12 -12 -12 -12 -12 -12 -12 -12 -12 -12 -12 -11 -11 -11
-9 -8 -8 -8 -8 -8 -10 -9 -9 -9 -9 -9 -9 -9 -9 -10 -9 -9 -9 -9 -9 -9 -9 -10 -9 -10 -10 -10 -9 -9 -10 -10 -11 -11 -11 -12 -12 -13 -13 -13 -13 -13 -12 -12 -12 -12 -12 -11 -11
-9 -9 -8 -9 -9 -9 -11 -8 -9 -9 -9 -8 -10 -10 -9 -10 -10 -10 -9 -9 -10 -10 -9 -10 -10 -10 -10 -10 -10 -10 -10 -10 -11 -11 -11 -12 -12 -13 -13 -13 -13 -13 -12 -12 -12 -12 -12 -12 -12
-10 -9 -9 -9 -9 -9 -10 -9 -9 -10 -9 -9 -10 -9 -10 -10 -10 -10 -10 -10 -9 -10 -9 -10 -10 -10 -10 -10 -10 -10 -10 -10 -10 -10 -12 -12 -13 -14 -13 -13 -13 -13 -13 -12 -12 -12 -13 -12 -12
-10 -10 -10 -10 -10 -10 -10 -10 -10 -9 -9 -10 -10 -9 -10 -10 -9 -9 -9 -9 -9 -10 -10 -10 -10 -10 -10 -10 -10 -10 -10 -10 -10 -10 -11 -12 -13 -14 -14 -14 -14 -13 -13 -13 -12 -12 -12 -12 -12
-11 -10 -11 -10 -10 -10 -10 -10 -9 -9 -10 -10 -10 -10 -10 -10 -10 -10 -10 -10 -10 -11 -11 -10 -10 -9 -10 -9 -10 -10 -10 -10 -10 -10 -12 -12 -13 -14 -14 -14 -13 -13 -14 -13 -12 -12 -12 -12 -12
-11 -11 -11 -11 -10 -10 -9 -9 -10 -9 -9 -10 -9 -9 -10 -10 -10 -10 -10 -10 -11 -10 -10 -10 -9 -10 -10 -10 -9 -10 -10 -10 -10 -11 -12 -12 -13 -14 -14 -14 -14 -14 -13 -13 -12 -12 -12 -12 -11
-11 -11 -11 -10 -10 -10 -10 -8 -8 -9 -9 -10 -10 -10 -9 -10 -10 -10 -10 -10 -10 -10 -10 -10 -10 -10 -10 -10 -10 -10 -10 -10 -10 -11 -11 -12 -13 -14 -14 -14 -13 -14 -13 -13 -12 -12 -11 -11 -11
-11 -11 -10 -9 -10 -10 -12 -6 -8 -10 -10 -11 -10 -10 -9 -9 -9 -9 -9 -9 -9 -9 -10 -10 -11 -11 -11 -10 -10 -10 -10 -11 -11 -11 -12 -13 -13 -13 -13 -14 -13 -13 -13 -12 -12 -11 -12 -12 -12
-11 -10 -9 -9 -10 -11 -12 -6 -9 -10 -10 -10 -10 -9 -9 -9 -9 -8 -9 -9 -10 -10 -10 -10 -11 -12 -11 -11 -10 -11 -11 -11 -11 -11 -12 -13 -13 -13 -13 -13 -13 -12 -12 -12 -12 -12 -12 -12 -12
-10 -10 -9 -8 -10 -11 -11 -8 -10 -11 -10 -10 -9 -9 -9 -8 -8 -9 -9 -9 -10 -10 -10 -11 -11 -11 -11 -11 -11 -11 -11 -11 -11 -11 -11 -13 -12 -12 -13 -13 -12 -12 -12 -12 -12 -13 -13 -13 -13
-11 -10 -10 -11 -11 -11 -11 -10 -10 -10 -11 -10 -9 -8 -8 -8 -8 -8 -8 -9 -10 -10 -10 -10 -11 -12 -11 -11 -11 -11 -11 -11 -11 -11 -11 -12 -12 -12 -12 -12 -12 -12 -12 -13 -13 -13 -13 -13 -13
-11 -11 -10 -11 -11 -11 -11 -11 -9 -10 -10 -9 -9 -8 -8 -8 -8 -8 -9 -10 -10 -10 -10 -11 -10 -11 -11 -12 -12 -12 -12 -11 -12 -12 -12 -12 -12 -12 -12 -12 -12 -13 -13 -13 -13 -12 -13 -13 -13
-11 -11 -11 -11 -11 -10 -11 -11 -10 -9 -9 -9 -8 -8 -8 -8 -8 -9 -9 -10 -10 -11 -10 -10 -11 -11 -12 -12 -12 -12 -12 -12 -12 -13 -12 -12 -12 -12 -12 -12 -13 -13 -13 -13 -13 -13 -13 -13 -13
-11 -11 -11 -11 -11 -10 -12 -10 -10 -8 -8 -8 -8 -8 -8 -8 -9 -9 -9 -9 -10 -10 -10 -11 -11 -11 -12 -12 -12 -12 -12 -12 -12 -12 -12 -12 -12 -12 -12 -12 -13 -13 -13 -13 -14 -14 -13 -13 -14
-10 -11 -11 -12 -11 -11 -11 -12 -7 -8 -7 -8 -8 -8 -9 -9 -9 -9 -9 -9 -10 -10 -11 -12 -11 -12 -12 -12 -11 -11 -12 -12 -12 -12 -12 -12 -12 -12 -12 -12 -12 -13 -13 -14 -14 -14 -14 -14 -14
-11 -11 -12 -12 -11 -11 -10 -11 -7 -8 -7 -8 -8 -9 -10 -9 -8 -8 -8 -9 -10 -11 -11 -11 -11 -12 -12 -12 -11 -12 -12 -11 -12 -11 -11 -11 -12 -12 -12 -12 -12 -13 -13 -14 -14 -14 -14 -14 -14
-11 -11 -11 -11 -11 -9 -10 -10 -7 -7 -8 -9 -9 -9 -9 -9 -8 -8 -10 -10 -10 -12 -12 -11 -12 -12 -11 -11 -11 -12 -11 -11 -11 -11 -12 -12 -12 -12 -12 -12 -12 -12 -13 -13 -13 -13 -14 -14 -14
-13 -12 -11 -11 -10 -10 -10 -8 -7 -7 -8 -9 -9 -10 -9 -8 -8 -8 -9 -9 -11 -12 -12 -12 -12 -11 -12 -12 -11 -11 -11 -11 -11 -11 -11 -11 -12 -12 -11 -12 -12 -12 -13 -13 -13 -13 -13 -13 -14
-14 -12 -12 -11 -12 -10 -9 -8 -8 -8 -8 -9 -11 -9 -9 -8 -8 -9 -9 -10 -11 -11 -11 -11 -11 -11 -12 -11 -12 -12 -11 -11 -11 -12 -11 -11 -12 -11 -12 -12 -12 -12 -13 -13 -13 -13 -13 -13 -13
-15 -14 -14 -13 -13 -11 -9 -8 -8 -8 -9 -10 -11 -10 -9 -8 -8 -9 -10 -10 -10 -11 -11 -11 -11 -12 -11 -11 -11 -11 -11 -11 -11 -11 -11 -11 -12 -12 -12 -12 -12 -12 -13 -13 -13 -13 -13 -13 -13
-16 -15 -15 -15 -12 -11 -9 -8 -8 -9 -9 -10 -10 -10 -9 -8 -9 -10 -10 -10 -10 -11 -11 -11 -11 -11 -11 -11 -11 -11 -11 -11 -11 -11 -11 -11 -12 -12 -12 -12 -12 -12 -12 -13 -12 -13 -13 -13 -13
-18 -16 -16 -15 -12 -10 -9 -8 -8 -9 -11 -10 -10 -11 -9 -9 -10 -10 -10 -10 -10 -11 -11 -11 -11 -11 -11 -11 -11 -11 -11 -11 -11 -11 -11 -11 -12 -12 -12 -12 -12 -12 -12 -13 -13 -13 -13 -13 -12

GFSSGP_500_temp_045.txt.gz
Temp
-6 -6 -6 -6 -6 -6 -6 -7 -7 -7 -7 -7 -8 -7 -7 -6 -9 -9 -8 -8 -8 -7 -8 -7 -7 -7 -7 -7 -7 -7 -7 -8 -8 -8 -8 -8 -8 -8 -8 -8 -8 -9 -8 -8 -8 -8 -8 -8 -8
-6 -6 -6 -6 -6 -7 -7 -7 -7 -7 -7 -7 -7 -7 -8 -7 -7 -7 -8 -8 -8 -7 -7 -7 -7 -7 -7 -8 -7 -7 -7 -8 -8 -8 -8 -8 -9 -9 -8 -8 -8 -8 -9 -8 -8 -9 -9 -9 -9
-7 -7 -6 -6 -7 -7 -7 -7 -7 -7 -7 -7 -8 -7 -8 -8 -8 -8 -8 -8 -7 -7 -7 -7 -8 -8 -8 -8 -8 -8 -8 -8 -8 -9 -9 -9 -9 -9 -9 -8 -8 -8 -9 -9 -9 -10 -10 -10 -10
-7 -7 -7 -6 -7 -7 -7 -7 -7 -7 -6 -7 -8 -7 -7 -8 -8 -8 -8 -8 -7 -7 -7 -7 -8 -7 -8 -8 -8 -8 -8 -8 -8 -9 -9 -10 -10 -9 -9 -9 -9 -9 -9 -10 -11 -11 -11 -11 -11
-7 -7 -7 -7 -7 -8 -8 -7 -7 -7 -6 -7 -7 -7 -7 -7 -8 -8 -7 -7 -7 -7 -7 -8 -7 -7 -7 -9 -8 -8 -8 -9 -9 -9 -10 -10 -10 -10 -10 -10 -10 -10 -10 -10 -11 -11 -11 -11 -11
-7 -7 -7 -7 -8 -8 -8 -8 -8 -7 -7 -7 -7 -7 -7 -7 -8 -8 -8 -8 -7 -7 -7 -8 -8 -8 -7 -8 -8 -9 -9 -9 -9 -10 -10 -10 -10 -10 -11 -11 -11 -11 -11 -11 -11 -11 -11 -11 -11
-8 -7 -7 -8 -8 -8 -8 -8 -8 -8 -7 -7 -7 -7 -7 -8 -8 -8 -8 -9 -8 -8 -7 -8 -8 -8 -8 -9 -9 -9 -9 -9 -9 -10 -10 -10 -11 -11 -11 -12 -11 -12 -12 -12 -12 -12 -11 -11 -11
-8 -7 -7 -8 -8 -8 -8 -9 -8 -8 -7 -7 -7 -7 -7 -8 -9 -9 -9 -8 -8 -8 -8 -8 -8 -8 -9 -9 -10 -9 -9 -9 -10 -10 -10 -11 -11 -11 -12 -12 -12 -13 -12 -12 -12 -12 -11 -12 -11
-8 -8 -7 -7 -8 -9 -9 -9 -9 -9 -8 -8 -8 -7 -8 -8 -8 -9 -8 -9 -8 -8 -8 -8 -9 -9 -9 -10 -11 -10 -10 -10 -10 -10 -11 -10 -11 -11 -12 -12 -12 -13 -13 -13 -13 -12 -12 -12 -12
-9 -8 -8 -8 -9 -9 -9 -10 -10 -9 -8 -8 -8 -8 -8 -8 -8 -8 -9 -9 -8 -8 -9 -9 -9 -10 -10 -10 -11 -11 -10 -10 -10 -11 -11 -10 -11 -11 -12 -12 -13 -13 -13 -14 -13 -13 -12 -12 -12
-9 -9 -9 -9 -9 -10 -11 -10 -10 -9 -9 -9 -8 -9 -8 -9 -9 -10 -10 -10 -10 -10 -10 -10 -10 -10 -9 -10 -11 -11 -10 -10 -11 -11 -11 -10 -11 -12 -12 -13 -13 -14 -14 -14 -13 -13 -12 -12 -12
-10 -9 -9 -10 -10 -10 -11 -11 -9 -9 -9 -10 -9 -9 -9 -9 -10 -10 -10 -10 -10 -10 -10 -10 -10 -9 -11 -10 -11 -11 -11 -10 -11 -11 -11 -11 -11 -12 -13 -13 -14 -14 -14 -14 -14 -14 -12 -12 -12
-11 -10 -10 -11 -11 -11 -11 -10 -10 -9 -9 -9 -9 -10 -10 -10 -10 -10 -10 -10 -10 -10 -10 -10 -10 -10 -11 -10 -11 -11 -11 -10 -11 -11 -11 -11 -11 -12 -13 -13 -14 -14 -14 -14 -14 -13 -12 -13 -12
-11 -11 -11 -11 -10 -11 -11 -10 -10 -9 -10 -10 -11 -10 -9 -9 -10 -10 -9 -9 -10 -10 -10 -11 -10 -11 -10 -11 -11 -11 -11 -11 -11 -12 -12 -11 -11 -12 -12 -13 -13 -14 -13 -14 -13 -13 -12 -13 -12
-11 -11 -11 -10 -11 -10 -11 -9 -9 -9 -10 -10 -11 -10 -10 -11 -11 -10 -10 -10 -10 -9 -10 -10 -10 -10 -10 -11 -11 -12 -11 -11 -11 -12 -12 -11 -12 -11 -12 -13 -13 -13 -13 -13 -13 -13 -13 -13 -12
-12 -11 -10 -10 -10 -11 -11 -7 -8 -10 -10 -11 -11 -11 -11 -11 -10 -9 -9 -9 -9 -9 -10 -10 -10 -10 -10 -11 -12 -12 -11 -11 -12 -12 -12 -12 -12 -13 -14 -13 -13 -13 -13 -13 -13 -12 -13 -12 -12
-12 -10 -10 -10 -11 -11 -11 -7 -9 -10 -11 -11 -12 -11 -10 -9 -9 -9 -9 -9 -9 -9 -9 -10 -10 -10 -11 -12 -11 -12 -12 -12 -12 -12 -12 -12 -13 -13 -12 -13 -13 -13 -13 -13 -13 -13 -13 -12 -13
-10 -10 -10 -10 -10 -12 -12 -9 -10 -10 -10 -11 -11 -11 -9 -9 -8 -9 -9 -9 -9 -9 -9 -10 -10 -11 -12 -11 -12 -12 -12 -12 -12 -12 -12 -12 -13 -13 -13 -13 -12 -12 -12 -13 -13 -13 -13 -13 -13
-11 -11 -11 -10 -11 -12 -11 -10 -10 -11 -10 -9 -9 -9 -8 -8 -8 -8 -9 -9 -9 -9 -9 -9 -10 -11 -11 -11 -12 -11 -11 -12 -12 -12 -12 -12 -13 -13 -13 -12 -12 -13 -13 -13 -12 -12 -13 -13 -13
-12 -11 -11 -11 -12 -12 -11 -10 -10 -9 -9 -9 -8 -8 -8 -8 -8 -8 -9 -9 -9 -9 -8 -9 -10 -12 -11 -11 -11 -11 -11 -12 -12 -12 -12 -13 -13 -12 -12 -12 -13 -13 -13 -13 -13 -13 -13 -13 -13
-12 -12 -12 -12 -12 -12 -11 -10 -9 -9 -8 -9 -8 -8 -8 -8 -8 -9 -9 -9 -8 -8 -9 -9 -11 -12 -12 -11 -11 -11 -12 -12 -12 -12 -12 -12 -12 -12 -12 -12 -13 -12 -13 -13 -14 -14 -14 -14 -13
-12 -12 -12 -12 -12 -11 -12 -9 -9 -8 -8 -8 -8 -8 -8 -8 -9 -9 -9 -9 -8 -8 -9 -9 -11 -12 -12 -11 -11 -11 -12 -11 -12 -12 -11 -11 -12 -12 -12 -12 -12 -13 -13 -13 -14 -14 -14 -14 -14
-11 -12 -12 -12 -12 -12 -11 -11 -6 -9 -8 -8 -8 -8 -8 -9 -9 -9 -9 -8 -8 -9 -9 -10 -11 -11 -11 -11 -12 -12 -11 -12 -12 -12 -12 -12 -12 -12 -12 -12 -12 -12 -13 -13 -14 -14 -14 -14 -14
-13 -12 -12 -12 -12 -11 -10 -11 -7 -8 -8 -8 -9 -8 -9 -9 -9 -8 -8 -8 -9 -9 -9 -11 -12 -11 -11 -12 -12 -12 -12 -12 -12 -12 -12 -12 -12 -12 -12 -12 -12 -12 -12 -13 -13 -13 -13 -14 -14
-13 -12 -12 -13 -12 -10 -10 -11 -8 -8 -8 -8 -8 -9 -9 -9 -8 -8 -8 -8 -8 -9 -10 -11 -11 -11 -11 -12 -12 -12 -12 -12 -12 -12 -12 -12 -12 -12 -12 -12 -12 -12 -12 -13 -13 -13 -13 -14 -14
-13 -13 -12 -12 -11 -11 -11 -9 -8 -8 -8 -8 -8 -9 -9 -9 -8 -8 -8 -8 -9 -9 -10 -11 -11 -11 -12 -12 -12 -11 -11 -11 -11 -11 -12 -12 -12 -12 -12 -12 -11 -12 -12 -12 -13 -13 -13 -13 -13
-15 -14 -13 -13 -12 -11 -10 -9 -8 -8 -9 -9 -9 -10 -10 -9 -8 -8 -8 -8 -9 -9 -10 -10 -11 -12 -12 -11 -11 -11 -11 -11 -11 -11 -11 -11 -11 -11 -11 -11 -11 -12 -12 -13 -13 -13 -13 -13 -13
-17 -17 -15 -14 -13 -11 -9 -9 -8 -8 -9 -10 -10 -11 -9 -9 -9 -8 -8 -8 -9 -9 -10 -10 -11 -12 -11 -11 -11 -11 -11 -11 -11 -11 -11 -11 -11 -11 -11 -11 -12 -12 -12 -13 -13 -13 -13 -13 -13
-18 -17 -16 -15 -13 -10 -10 -9 -8 -8 -9 -10 -11 -11 -9 -9 -9 -9 -9 -9 -9 -10 -10 -10 -11 -11 -11 -11 -11 -11 -11 -11 -11 -11 -11 -11 -11 -11 -11 -11 -12 -12 -12 -13 -13 -13 -13 -13 -13
-20 -18 -17 -15 -12 -11 -10 -8 -9 -9 -9 -11 -12 -11 -10 -10 -9 -10 -9 -10 -10 -10 -10 -11 -11 -11 -11 -11 -11 -10 -11 -11 -11 -11 -11 -11 -11 -11 -12 -11 -11 -12 -12 -13 -13 -13 -13 -13 -13

GFSSGP_500_temp_048.txt.gz
Temp
-7 -7 -7 -6 -7 -7 -7 -7 -7 -7 -8 -8 -7 -7 -8 -7 -7 -7 -7 -6 -7 -8 -8 -7 -7 -7 -7 -7 -7 -7 -7 -7 -8 -7 -7 -7 -6 -7 -7 -8 -8 -8 -8 -8 -8 -8 -8 -7 -7
-6 -7 -7 -7 -6 -7 -8 -7 -7 -7 -7 -7 -7 -7 -7 -7 -8 -8 -8 -8 -8 -8 -8 -7 -7 -7 -7 -7 -8 -7 -8 -8 -8 -8 -7 -7 -7 -8 -8 -8 -8 -8 -8 -9 -8 -8 -9 -8 -8
-6 -6 -6 -7 -7 -7 -7 -7 -7 -7 -7 -7 -7 -6 -7 -7 -8 -8 -8 -7 -8 -8 -8 -7 -7 -8 -8 -8 -8 -7 -8 -8 -8 -8 -8 -8 -8 -8 -9 -9 -9 -9 -8 -9 -10 -10 -10 -10 -9
-7 -7 -6 -6 -7 -8 -8 -7 -7 -7 -7 -7 -7 -7 -7 -7 -7 -9 -8 -8 -8 -7 -8 -7 -8 -8 -8 -8 -8 -8 -8 -8 -9 -8 -8 -8 -9 -9 -10 -9 -9 -9 -9 -9 -10 -10 -11 -10 -10
-7 -7 -7 -6 -7 -8 -7 -8 -7 -7 -7 -7 -7 -7 -7 -7 -7 -7 -7 -8 -7 -8 -7 -7 -8 -8 -8 -8 -9 -9 -9 -9 -9 -9 -9 -10 -10 -10 -10 -10 -10 -10 -10 -10 -10 -11 -11 -11 -11
-8 -7 -7 -7 -7 -8 -8 -8 -7 -7 -7 -7 -7 -7 -8 -8 -7 -7 -7 -7 -7 -7 -7 -7 -8 -8 -8 -8 -9 -9 -9 -10 -10 -9 -9 -10 -10 -11 -11 -11 -11 -10 -10 -11 -11 -11 -11 -12 -12
-8 -8 -7 -7 -8 -8 -8 -8 -8 -8 -8 -8 -7 -7 -7 -7 -7 -7 -7 -7 -7 -8 -8 -7 -8 -8 -8 -8 -9 -9 -9 -10 -10 -10 -10 -10 -11 -11 -11 -11 -11 -11 -11 -11 -11 -11 -12 -12 -12
-8 -8 -7 -7 -8 -8 -9 -8 -8 -8 -8 -8 -7 -7 -7 -7 -7 -8 -7 -7 -7 -8 -8 -8 -8 -8 -8 -8 -8 -9 -10 -10 -10 -10 -10 -10 -11 -11 -11 -11 -11 -11 -11 -11 -11 -11 -12 -12 -12
-9 -8 -7 -8 -8 -9 -9 -9 -9 -9 -8 -8 -8 -8 -8 -8 -7 -7 -7 -7 -8 -8 -9 -8 -9 -9 -9 -8 -8 -9 -10 -10 -10 -10 -10 -10 -11 -11 -11 -11 -12 -12 -11 -11 -11 -12 -12 -12 -12
-9 -8 -8 -8 -8 -9 -9 -9 -9 -9 -9 -9 -8 -8 -8 -8 -8 -7 -8 -8 -8 -9 -9 -10 -9 -10 -10 -10 -10 -11 -11 -11 -11 -11 -10 -10 -11 -11 -11 -11 -12 -11 -12 -12 -12 -12 -12 -12 -12
-9 -8 -9 -9 -9 -10 -10 -10 -10 -10 -9 -9 -9 -9 -8 -8 -9 -9 -9 -9 -9 -9 -10 -10 -10 -11 -11 -11 -11 -11 -11 -12 -12 -11 -11 -11 -11 -11 -11 -12 -12 -12 -12 -12 -13 -12 -13 -13 -13
-10 -9 -9 -9 -10 -10 -11 -11 -9 -10 -10 -10 -10 -9 -9 -9 -9 -9 -9 -9 -10 -10 -10 -10 -11 -11 -11 -11 -11 -11 -12 -12 -12 -11 -11 -11 -11 -11 -12 -12 -12 -12 -12 -13 -12 -12 -13 -13 -12
-11 -10 -10 -10 -11 -12 -12 -10 -10 -10 -10 -10 -10 -10 -9 -9 -9 -10 -10 -10 -10 -10 -10 -11 -11 -11 -11 -11 -11 -11 -12 -12 -12 -11 -11 -12 -12 -12 -12 -13 -12 -13 -13 -13 -13 -13 -13 -13 -13
-11 -11 -11 -11 -11 -12 -11 -10 -9 -9 -10 -10 -10 -10 -10 -10 -9 -9 -10 -10 -10 -10 -11 -11 -10 -10 -11 -11 -12 -12 -12 -12 -11 -11 -12 -12 -12 -12 -12 -12 -13 -13 -13 -13 -13 -13 -13 -13 -13
-12 -12 -12 -11 -12 -12 -12 -10 -8 -10 -10 -9 -10 -9 -10 -9 -9 -9 -10 -10 -10 -9 -9 -10 -10 -10 -10 -11 -11 -11 -11 -11 -12 -12 -12 -12 -12 -12 -12 -13 -13 -12 -13 -13 -13 -13 -13 -13 -12
-12 -12 -12 -11 -11 -11 -12 -8 -9 -10 -11 -10 -11 -10 -10 -9 -9 -10 -11 -9 -9 -9 -9 -10 -9 -9 -10 -11 -11 -11 -11 -12 -12 -12 -12 -12 -13 -13 -12 -13 -13 -12 -13 -13 -13 -13 -13 -13 -13
-12 -11 -11 -11 -11 -12 -12 -8 -9 -10 -10 -11 -11 -10 -10 -9 -10 -11 -9 -9 -9 -9 -9 -9 -9 -9 -10 -10 -11 -11 -11 -12 -12 -12 -12 -13 -13 -13 -12 -13 -13 -12 -13 -13 -13 -12 -12 -13 -13
-10 -11 -11 -11 -11 -12 -12 -8 -10 -10 -10 -11 -11 -10 -10 -9 -9 -9 -9 -9 -9 -9 -9 -9 -9 -9 -10 -9 -10 -10 -12 -13 -13 -12 -12 -13 -13 -13 -13 -13 -13 -13 -12 -13 -12 -13 -13 -13 -13
-12 -12 -11 -11 -12 -12 -11 -10 -10 -10 -10 -10 -9 -9 -9 -9 -9 -9 -9 -9 -9 -9 -8 -9 -9 -9 -9 -10 -9 -11 -12 -12 -12 -12 -12 -13 -13 -13 -13 -12 -13 -12 -13 -13 -13 -13 -13 -13 -13
-12 -12 -12 -12 -12 -12 -11 -10 -10 -10 -9 -9 -8 -9 -8 -8 -8 -8 -8 -9 -9 -9 -9 -9 -9 -9 -9 -9 -10 -11 -11 -11 -12 -12 -13 -13 -13 -13 -12 -12 -12 -12 -12 -13 -13 -13 -13 -14 -13
-12 -12 -12 -12 -13 -12 -11 -10 -10 -9 -9 -9 -8 -8 -7 -8 -8 -8 -9 -9 -9 -9 -9 -9 -9 -9 -9 -9 -10 -11 -11 -12 -12 -12 -12 -13 -12 -12 -12 -12 -12 -12 -12 -12 -13 -13 -14 -14 -14
-13 -12 -12 -12 -12 -12 -12 -9 -9 -9 -8 -8 -8 -8 -8 -8 -8 -9 -9 -9 -9 -9 -9 -8 -9 -9 -10 -10 -10 -11 -11 -12 -12 -12 -12 -12 -12 -12 -12 -12 -12 -12 -12 -12 -13 -13 -14 -14 -14
-13 -13 -13 -13 -13 -12 -12 -11 -7 -9 -8 -8 -9 -9 -8 -8 -9 -9 -9 -9 -9 -8 -8 -9 -9 -10 -10 -10 -10 -11 -12 -12 -12 -12 -12 -12 -11 -12 -12 -12 -12 -12 -12 -12 -12 -12 -13 -13 -14
-14 -14 -13 -13 -13 -12 -11 -12 -7 -8 -8 -9 -9 -9 -9 -9 -9 -9 -9 -9 -8 -8 -9 -9 -9 -10 -10 -10 -11 -11 -12 -12 -12 -12 -11 -11 -12 -12 -12 -12 -12 -12 -12 -12 -12 -13 -13 -14 -14
-15 -14 -14 -14 -13 -11 -11 -12 -8 -9 -9 -9 -9 -9 -9 -9 -10 -9 -9 -8 -9 -8 -8 -8 -9 -9 -10 -11 -11 -11 -12 -12 -12 -11 -11 -11 -11 -11 -11 -12 -12 -12 -12 -12 -12 -13 -13 -13 -14
-16 -15 -14 -14 -12 -12 -12 -11 -8 -9 -9 -9 -9 -9 -9 -10 -10 -9 -8 -8 -8 -8 -8 -9 -9 -9 -10 -11 -11 -12 -12 -12 -11 -11 -11 -11 -11 -11 -11 -11 -11 -12 -12 -12 -12 -13 -13 -13 -14
-18 -16 -15 -15 -14 -12 -11 -10 -10 -9 -9 -10 -11 -10 -9 -9 -9 -8 -8 -8 -8 -8 -8 -9 -9 -10 -10 -11 -11 -12 -12 -11 -11 -11 -11 -11 -11 -11 -11 -11 -11 -11 -12 -12 -13 -13 -13 -13 -13
-19 -18 -17 -16 -14 -12 -11 -10 -10 -9 -9 -11 -11 -10 -10 -9 -9 -9 -9 -8 -8 -8 -9 -9 -10 -10 -10 -11 -12 -11 -11 -11 -11 -11 -11 -11 -11 -11 -11 -11 -11 -12 -12 -12 -12 -13 -13 -13 -13
-20 -19 -18 -16 -14 -12 -11 -10 -10 -10 -10 -10 -10 -10 -10 -10 -10 -9 -8 -8 -8 -9 -9 -9 -10 -10 -11 -11 -11 -11 -11 -11 -11 -11 -11 -11 -11 -11 -11 -11 -11 -12 -12 -12 -12 -12 -13 -13 -13
-21 -19 -18 -17 -14 -12 -11 -11 -10 -10 -10 -10 -10 -11 -11 -10 -10 -9 -9 -9 -9 -9 -9 -10 -10 -11 -11 -11 -11 -11 -11 -11 -11 -11 -11 -11 -11 -11 -11 -12 -12 -12 -13 -12 -12 -13 -13 -13 -13